Time,TemperatureF,DewpointF,PressureIn,WindDirection,WindDirectionDegrees,WindSpeedMPH,WindSpeedGustMPH,Humidity,HourlyPrecipIn,Conditions,Clouds,dailyrainin,SoftwareType,DateUTC
2013-04-18 00:00:00,76.3,68.9,29.63,SSW,194,5.0,10.0,78,0.00,,,0.00,Wunderground v.1.15,2013-04-18 05:00:00,
2013-04-18 00:01:00,76.3,68.9,29.63,South,176,6.0,10.0,78,0.00,,,0.00,Wunderground v.1.15,2013-04-18 05:01:00,
2013-04-18 00:05:00,76.3,68.9,29.62,South,177,6.0,6.0,78,0.00,,,0.00,Wunderground v.1.15,2013-04-18 05:05:00,
2013-04-18 00:06:00,76.2,68.8,29.62,South,191,6.0,6.0,78,0.00,,,0.00,Wunderground v.1.15,2013-04-18 05:06:00,
2013-04-18 00:08:00,76.2,68.8,29.62,South,175,7.0,7.0,78,0.00,,,0.00,Wunderground v.1.15,2013-04-18 05:08:00,
2013-04-18 00:13:00,76.2,68.8,29.63,South,184,2.0,5.0,78,0.00,,,0.00,Wunderground v.1.15,2013-04-18 05:13:00,
2013-04-18 00:14:00,76.2,68.8,29.63,SSW,196,4.0,5.0,78,0.00,,,0.00,Wunderground v.1.15,2013-04-18 05:14:00,
2013-04-18 00:15:00,76.2,68.8,29.63,SSE,157,5.0,5.0,78,0.00,,,0.00,Wunderground v.1.15,2013-04-18 05:15:00,
2013-04-18 00:16:00,76.2,68.8,29.63,SSW,211,5.0,5.0,78,0.00,,,0.00,Wunderground v.1.15,2013-04-18 05:16:00,
2013-04-18 00:19:00,76.2,68.8,29.63,South,169,5.0,8.0,78,0.00,,,0.00,Wunderground v.1.15,2013-04-18 05:19:00,
2013-04-18 00:20:00,76.2,68.8,29.63,SSE,156,5.0,8.0,78,0.00,,,0.00,Wunderground v.1.15,2013-04-18 05:20:00,
2013-04-18 00:23:00,76.2,68.8,29.63,South,182,2.0,6.0,78,0.00,,,0.00,Wunderground v.1.15,2013-04-18 05:23:00,
2013-04-18 00:24:00,76.2,68.8,29.63,SSE,162,3.0,6.0,78,0.00,,,0.00,Wunderground v.1.15,2013-04-18 05:24:00,
2013-04-18 00:26:00,76.2,68.8,29.63,SSE,163,7.0,7.0,78,0.00,,,0.00,Wunderground v.1.15,2013-04-18 05:26:00,
2013-04-18 00:27:00,76.2,68.8,29.63,South,177,3.0,7.0,78,0.00,,,0.00,Wunderground v.1.15,2013-04-18 05:27:00,
2013-04-18 00:29:00,76.1,69.1,29.63,SSW,198,7.0,7.0,79,0.00,,,0.00,Wunderground v.1.15,2013-04-18 05:29:00,
2013-04-18 00:30:00,76.1,68.7,29.63,SSW,202,7.0,7.0,78,0.00,,,0.00,Wunderground v.1.15,2013-04-18 05:30:00,
2013-04-18 00:32:00,76.1,68.7,29.63,South,188,0.0,10.0,78,0.00,,,0.00,Wunderground v.1.15,2013-04-18 05:32:00,
2013-04-18 00:33:00,76.0,69.0,29.63,SSW,194,11.0,11.0,79,0.00,,,0.00,Wunderground v.1.15,2013-04-18 05:33:00,
2013-04-18 00:34:00,76.0,69.0,29.63,South,172,8.0,11.0,79,0.00,,,0.00,Wunderground v.1.15,2013-04-18 05:34:00,
2013-04-18 00:35:00,76.0,69.0,29.63,SSE,163,5.0,11.0,79,0.00,,,0.00,Wunderground v.1.15,2013-04-18 05:35:00,
2013-04-18 00:36:00,76.0,68.6,29.63,South,181,3.0,11.0,78,0.00,,,0.00,Wunderground v.1.15,2013-04-18 05:36:00,
2013-04-18 00:40:00,76.0,69.0,29.62,South,182,4.0,12.0,79,0.00,,,0.00,Wunderground v.1.15,2013-04-18 05:40:00,
2013-04-18 00:41:00,76.0,69.0,29.62,South,189,4.0,12.0,79,0.00,,,0.00,Wunderground v.1.15,2013-04-18 05:41:00,
2013-04-18 00:43:00,76.0,69.0,29.62,South,172,9.0,9.0,79,0.00,,,0.00,Wunderground v.1.15,2013-04-18 05:43:00,
2013-04-18 00:44:00,76.0,69.0,29.62,South,173,8.0,9.0,79,0.00,,,0.00,Wunderground v.1.15,2013-04-18 05:44:00,
2013-04-18 00:45:00,76.0,69.0,29.62,SSE,157,5.0,9.0,79,0.00,,,0.00,Wunderground v.1.15,2013-04-18 05:45:00,
2013-04-18 00:46:00,76.0,69.0,29.62,SSW,196,7.0,9.0,79,0.00,,,0.00,Wunderground v.1.15,2013-04-18 05:46:00,
2013-04-18 00:48:00,75.9,68.9,29.62,South,188,6.0,9.0,79,0.00,,,0.00,Wunderground v.1.15,2013-04-18 05:48:00,
2013-04-18 00:51:00,75.8,68.8,29.62,South,175,9.0,9.0,79,0.00,,,0.00,Wunderground v.1.15,2013-04-18 05:51:00,
2013-04-18 00:52:00,75.8,68.8,29.62,South,178,3.0,9.0,79,0.00,,,0.00,Wunderground v.1.15,2013-04-18 05:52:00,
2013-04-18 00:55:00,75.8,68.8,29.62,SSW,209,6.0,7.0,79,0.00,,,0.00,Wunderground v.1.15,2013-04-18 05:55:00,
2013-04-18 00:57:00,75.8,68.8,29.62,SSE,154,4.0,7.0,79,0.00,,,0.00,Wunderground v.1.15,2013-04-18 05:57:00,
2013-04-18 00:58:00,75.8,68.8,29.62,South,178,6.0,7.0,79,0.00,,,0.00,Wunderground v.1.15,2013-04-18 05:58:00,
2013-04-18 01:03:00,75.8,68.8,29.61,South,186,6.0,6.0,79,0.00,,,0.00,Wunderground v.1.15,2013-04-18 06:03:00,
2013-04-18 01:04:00,75.8,68.8,29.62,South,178,7.0,7.0,79,0.00,,,0.00,Wunderground v.1.15,2013-04-18 06:04:00,
2013-04-18 01:06:00,75.8,68.8,29.62,South,181,6.0,11.0,79,0.00,,,0.00,Wunderground v.1.15,2013-04-18 06:06:00,
2013-04-18 01:07:00,75.8,68.8,29.62,South,172,3.0,11.0,79,0.00,,,0.00,Wunderground v.1.15,2013-04-18 06:07:00,
2013-04-18 01:09:00,75.7,68.7,29.62,SSE,161,6.0,11.0,79,0.00,,,0.00,Wunderground v.1.15,2013-04-18 06:09:00,
2013-04-18 01:10:00,75.7,68.7,29.62,South,171,6.0,11.0,79,0.00,,,0.00,Wunderground v.1.15,2013-04-18 06:10:00,
2013-04-18 01:11:00,75.7,68.7,29.62,South,186,6.0,11.0,79,0.00,,,0.00,Wunderground v.1.15,2013-04-18 06:11:00,
2013-04-18 01:14:00,75.7,69.1,29.62,SSE,163,5.0,6.0,80,0.00,,,0.00,Wunderground v.1.15,2013-04-18 06:14:00,
2013-04-18 01:16:00,75.6,69.0,29.62,South,172,3.0,6.0,80,0.00,,,0.00,Wunderground v.1.15,2013-04-18 06:16:00,
2013-04-18 01:17:00,75.6,69.0,29.61,South,173,3.0,6.0,80,0.00,,,0.00,Wunderground v.1.15,2013-04-18 06:17:00,
2013-04-18 01:18:00,75.6,69.0,29.61,South,183,4.0,6.0,80,0.00,,,0.00,Wunderground v.1.15,2013-04-18 06:18:00,
2013-04-18 01:22:00,75.5,68.9,29.61,SSW,196,7.0,8.0,80,0.00,,,0.00,Wunderground v.1.15,2013-04-18 06:22:00,
2013-04-18 01:24:00,75.5,68.9,29.61,South,186,5.0,7.0,80,0.00,,,0.00,Wunderground v.1.15,2013-04-18 06:24:00,
2013-04-18 01:25:00,75.5,68.9,29.61,SSW,200,11.0,11.0,80,0.00,,,0.00,Wunderground v.1.15,2013-04-18 06:25:00,
2013-04-18 01:26:00,75.5,68.9,29.61,South,190,7.0,11.0,80,0.00,,,0.00,Wunderground v.1.15,2013-04-18 06:26:00,
2013-04-18 01:28:00,75.4,68.8,29.61,South,176,4.0,11.0,80,0.00,,,0.00,Wunderground v.1.15,2013-04-18 06:28:00,
2013-04-18 01:29:00,75.4,68.8,29.61,South,189,9.0,11.0,80,0.00,,,0.00,Wunderground v.1.15,2013-04-18 06:29:00,
2013-04-18 01:31:00,75.4,69.2,29.61,SSE,163,5.0,11.0,81,0.00,,,0.00,Wunderground v.1.15,2013-04-18 06:31:00,
2013-04-18 01:32:00,75.3,69.1,29.61,South,182,7.0,11.0,81,0.00,,,0.00,Wunderground v.1.15,2013-04-18 06:32:00,
2013-04-18 01:34:00,75.3,69.1,29.61,SSE,157,4.0,12.0,81,0.00,,,0.00,Wunderground v.1.15,2013-04-18 06:34:00,
2013-04-18 01:36:00,75.3,69.1,29.61,SSW,200,7.0,12.0,81,0.00,,,0.00,Wunderground v.1.15,2013-04-18 06:36:00,
2013-04-18 01:38:00,75.3,69.1,29.61,SSE,167,6.0,12.0,81,0.00,,,0.00,Wunderground v.1.15,2013-04-18 06:38:00,
2013-04-18 01:39:00,75.2,69.0,29.61,South,173,5.0,12.0,81,0.00,,,0.00,Wunderground v.1.15,2013-04-18 06:39:00,
2013-04-18 01:40:00,75.2,69.0,29.61,SSW,209,10.0,12.0,81,0.00,,,0.00,Wunderground v.1.15,2013-04-18 06:40:00,
2013-04-18 01:41:00,75.2,69.0,29.61,South,182,8.0,12.0,81,0.00,,,0.00,Wunderground v.1.15,2013-04-18 06:41:00,
2013-04-18 01:44:00,75.2,69.0,29.61,SSW,192,6.0,7.0,81,0.00,,,0.00,Wunderground v.1.15,2013-04-18 06:44:00,
2013-04-18 01:47:00,75.2,69.0,29.61,SSW,194,7.0,7.0,81,0.00,,,0.00,Wunderground v.1.15,2013-04-18 06:47:00,
2013-04-18 01:48:00,75.2,69.0,29.61,South,187,7.0,7.0,81,0.00,,,0.00,Wunderground v.1.15,2013-04-18 06:48:00,
2013-04-18 01:49:00,75.2,69.0,29.61,South,181,7.0,7.0,81,0.00,,,0.00,Wunderground v.1.15,2013-04-18 06:49:00,
2013-04-18 01:50:00,75.2,69.0,29.61,SSW,200,7.0,8.0,81,0.00,,,0.00,Wunderground v.1.15,2013-04-18 06:50:00,
2013-04-18 01:54:00,75.1,68.9,29.61,South,175,8.0,8.0,81,0.00,,,0.00,Wunderground v.1.15,2013-04-18 06:54:00,
2013-04-18 01:55:00,75.1,68.9,29.61,SSW,195,7.0,8.0,81,0.00,,,0.00,Wunderground v.1.15,2013-04-18 06:55:00,
2013-04-18 01:56:00,75.0,68.8,29.61,South,182,4.0,8.0,81,0.00,,,0.00,Wunderground v.1.15,2013-04-18 06:56:00,
2013-04-18 01:57:00,75.0,68.8,29.61,SSE,164,5.0,8.0,81,0.00,,,0.00,Wunderground v.1.15,2013-04-18 06:57:00,
2013-04-18 02:00:00,74.9,68.7,29.61,SSE,168,3.0,8.0,81,0.00,,,0.00,Wunderground v.1.15,2013-04-18 07:00:00,
2013-04-18 02:01:00,74.9,68.7,29.61,South,189,10.0,10.0,81,0.00,,,0.00,Wunderground v.1.15,2013-04-18 07:01:00,
2013-04-18 02:02:00,74.9,68.7,29.61,South,170,8.0,10.0,81,0.00,,,0.00,Wunderground v.1.15,2013-04-18 07:02:00,
2013-04-18 02:04:00,74.9,68.7,29.60,SSE,166,5.0,7.0,81,0.00,,,0.00,Wunderground v.1.15,2013-04-18 07:04:00,
2013-04-18 02:06:00,74.9,68.7,29.60,South,179,6.0,12.0,81,0.00,,,0.00,Wunderground v.1.15,2013-04-18 07:06:00,
2013-04-18 02:07:00,74.9,68.7,29.60,SSE,166,6.0,12.0,81,0.00,,,0.00,Wunderground v.1.15,2013-04-18 07:07:00,
2013-04-18 02:09:00,74.8,68.9,29.60,SSE,160,9.0,12.0,82,0.00,,,0.00,Wunderground v.1.15,2013-04-18 07:09:00,
2013-04-18 02:12:00,74.8,68.9,29.60,South,169,7.0,12.0,82,0.00,,,0.00,Wunderground v.1.15,2013-04-18 07:12:00,
2013-04-18 02:14:00,74.7,68.8,29.60,SSE,165,7.0,14.0,82,0.00,,,0.00,Wunderground v.1.15,2013-04-18 07:14:00,
2013-04-18 02:15:00,74.7,68.8,29.60,SW,215,8.0,14.0,82,0.00,,,0.00,Wunderground v.1.15,2013-04-18 07:15:00,
2013-04-18 02:17:00,74.7,68.8,29.60,SSE,166,8.0,14.0,82,0.00,,,0.00,Wunderground v.1.15,2013-04-18 07:17:00,
2013-04-18 02:18:00,74.7,68.8,29.59,South,175,6.0,14.0,82,0.00,,,0.00,Wunderground v.1.15,2013-04-18 07:18:00,
2013-04-18 02:20:00,74.7,68.8,29.60,South,183,6.0,14.0,82,0.00,,,0.00,Wunderground v.1.15,2013-04-18 07:20:00,
2013-04-18 02:22:00,74.6,68.7,29.59,SSE,168,3.0,14.0,82,0.00,,,0.00,Wunderground v.1.15,2013-04-18 07:22:00,
2013-04-18 02:23:00,74.6,68.7,29.59,South,191,5.0,8.0,82,0.00,,,0.00,Wunderground v.1.15,2013-04-18 07:23:00,
2013-04-18 02:25:00,74.5,68.6,29.59,SSE,159,4.0,8.0,82,0.00,,,0.00,Wunderground v.1.15,2013-04-18 07:25:00,
2013-04-18 02:26:00,74.5,68.6,29.60,South,171,6.0,8.0,82,0.00,,,0.00,Wunderground v.1.15,2013-04-18 07:26:00,
2013-04-18 02:28:00,74.4,68.5,29.60,SSE,165,5.0,9.0,82,0.00,,,0.00,Wunderground v.1.15,2013-04-18 07:28:00,
2013-04-18 02:29:00,74.4,68.5,29.59,SSE,158,2.0,9.0,82,0.00,,,0.00,Wunderground v.1.15,2013-04-18 07:29:00,
2013-04-18 02:30:00,74.3,68.4,29.59,SSW,192,7.0,9.0,82,0.00,,,0.00,Wunderground v.1.15,2013-04-18 07:30:00,
2013-04-18 02:31:00,74.3,68.4,29.59,SSW,192,5.0,11.0,82,0.00,,,0.00,Wunderground v.1.15,2013-04-18 07:31:00,
2013-04-18 02:33:00,74.3,68.4,29.59,South,190,8.0,9.0,82,0.00,,,0.00,Wunderground v.1.15,2013-04-18 07:33:00,
2013-04-18 02:34:00,74.3,68.4,29.59,South,177,13.0,13.0,82,0.00,,,0.00,Wunderground v.1.15,2013-04-18 07:34:00,
2013-04-18 02:35:00,74.3,68.4,29.59,SSE,157,11.0,13.0,82,0.00,,,0.00,Wunderground v.1.15,2013-04-18 07:35:00,
2013-04-18 02:37:00,74.3,68.4,29.59,South,187,8.0,13.0,82,0.00,,,0.00,Wunderground v.1.15,2013-04-18 07:37:00,
2013-04-18 02:38:00,74.3,68.4,29.59,SSW,204,6.0,13.0,82,0.00,,,0.00,Wunderground v.1.15,2013-04-18 07:38:00,
2013-04-18 02:39:00,74.3,68.4,29.59,SSE,168,8.0,13.0,82,0.00,,,0.00,Wunderground v.1.15,2013-04-18 07:39:00,
2013-04-18 02:41:00,74.2,68.3,29.59,SSW,198,6.0,13.0,82,0.00,,,0.00,Wunderground v.1.15,2013-04-18 07:41:00,
2013-04-18 02:42:00,74.2,68.3,29.59,SSE,167,3.0,13.0,82,0.00,,,0.00,Wunderground v.1.15,2013-04-18 07:42:00,
2013-04-18 02:43:00,74.2,68.7,29.59,South,184,6.0,8.0,83,0.00,,,0.00,Wunderground v.1.15,2013-04-18 07:43:00,
2013-04-18 02:45:00,74.1,68.6,29.58,South,173,2.0,8.0,83,0.00,,,0.00,Wunderground v.1.15,2013-04-18 07:45:00,
2013-04-18 02:46:00,74.1,68.6,29.59,South,190,5.0,9.0,83,0.00,,,0.00,Wunderground v.1.15,2013-04-18 07:46:00,
2013-04-18 02:47:00,74.1,68.6,29.59,South,183,8.0,9.0,83,0.00,,,0.00,Wunderground v.1.15,2013-04-18 07:47:00,
2013-04-18 02:49:00,74.1,68.6,29.58,SSE,155,11.0,11.0,83,0.00,,,0.00,Wunderground v.1.15,2013-04-18 07:49:00,
2013-04-18 02:50:00,74.1,68.6,29.59,South,175,6.0,11.0,83,0.00,,,0.00,Wunderground v.1.15,2013-04-18 07:50:00,
2013-04-18 02:52:00,74.1,68.6,29.58,SSE,161,5.0,11.0,83,0.00,,,0.00,Wunderground v.1.15,2013-04-18 07:52:00,
2013-04-18 02:54:00,74.0,68.5,29.58,SSE,164,3.0,10.0,83,0.00,,,0.00,Wunderground v.1.15,2013-04-18 07:54:00,
2013-04-18 02:55:00,74.0,68.5,29.58,South,183,6.0,10.0,83,0.00,,,0.00,Wunderground v.1.15,2013-04-18 07:55:00,
2013-04-18 02:57:00,74.0,68.5,29.58,SSW,203,10.0,10.0,83,0.00,,,0.00,Wunderground v.1.15,2013-04-18 07:57:00,
2013-04-18 02:59:00,74.0,68.5,29.58,SSE,160,6.0,10.0,83,0.00,,,0.00,Wunderground v.1.15,2013-04-18 07:59:00,
2013-04-18 03:01:00,74.0,68.5,29.58,WSW,238,8.0,13.0,83,0.00,,,0.00,Wunderground v.1.15,2013-04-18 08:01:00,
2013-04-18 03:02:00,74.0,68.5,29.58,South,171,5.0,13.0,83,0.00,,,0.00,Wunderground v.1.15,2013-04-18 08:02:00,
2013-04-18 03:03:00,74.0,68.5,29.58,SSW,192,7.0,13.0,83,0.00,,,0.00,Wunderground v.1.15,2013-04-18 08:03:00,
2013-04-18 03:05:00,74.0,68.5,29.58,SSE,167,5.0,8.0,83,0.00,,,0.00,Wunderground v.1.15,2013-04-18 08:05:00,
2013-04-18 03:06:00,73.9,68.4,29.58,SSE,155,7.0,9.0,83,0.00,,,0.00,Wunderground v.1.15,2013-04-18 08:06:00,
2013-04-18 03:07:00,73.9,68.4,29.58,South,177,5.0,11.0,83,0.00,,,0.00,Wunderground v.1.15,2013-04-18 08:07:00,
2013-04-18 03:08:00,73.9,68.4,29.58,South,175,6.0,11.0,83,0.00,,,0.00,Wunderground v.1.15,2013-04-18 08:08:00,
2013-04-18 03:09:00,73.9,68.4,29.58,SSE,165,5.0,11.0,83,0.00,,,0.00,Wunderground v.1.15,2013-04-18 08:09:00,
2013-04-18 03:10:00,73.9,68.4,29.58,South,172,2.0,11.0,83,0.00,,,0.00,Wunderground v.1.15,2013-04-18 08:10:00,
2013-04-18 03:12:00,73.9,68.4,29.58,South,180,2.0,11.0,83,0.00,,,0.00,Wunderground v.1.15,2013-04-18 08:12:00,
2013-04-18 03:13:00,73.9,68.4,29.58,South,188,5.0,6.0,83,0.00,,,0.00,Wunderground v.1.15,2013-04-18 08:13:00,
2013-04-18 03:14:00,73.9,68.4,29.58,South,184,7.0,7.0,83,0.00,,,0.00,Wunderground v.1.15,2013-04-18 08:14:00,
2013-04-18 03:15:00,73.9,68.4,29.58,South,179,3.0,7.0,83,0.00,,,0.00,Wunderground v.1.15,2013-04-18 08:15:00,
2013-04-18 03:18:00,73.8,68.3,29.58,SSE,165,6.0,12.0,83,0.00,,,0.00,Wunderground v.1.15,2013-04-18 08:18:00,
2013-04-18 03:19:00,73.9,68.4,29.58,SSE,163,6.0,12.0,83,0.00,,,0.00,Wunderground v.1.15,2013-04-18 08:19:00,
2013-04-18 03:21:00,73.9,68.4,29.58,South,183,3.0,12.0,83,0.00,,,0.00,Wunderground v.1.15,2013-04-18 08:21:00,
2013-04-18 03:23:00,73.9,68.4,29.58,South,187,6.0,7.0,83,0.00,,,0.00,Wunderground v.1.15,2013-04-18 08:23:00,
2013-04-18 03:24:00,73.9,68.4,29.58,SSE,165,10.0,13.0,83,0.00,,,0.00,Wunderground v.1.15,2013-04-18 08:24:00,
2013-04-18 03:26:00,73.9,68.4,29.58,South,180,5.0,13.0,83,0.00,,,0.00,Wunderground v.1.15,2013-04-18 08:26:00,
2013-04-18 03:28:00,74.0,68.2,29.58,SSE,162,10.0,15.0,82,0.00,,,0.00,Wunderground v.1.15,2013-04-18 08:28:00,
2013-04-18 03:29:00,74.0,68.2,29.58,South,188,3.0,15.0,82,0.00,,,0.00,Wunderground v.1.15,2013-04-18 08:29:00,
2013-04-18 03:30:00,74.0,68.2,29.58,SSW,198,7.0,15.0,82,0.00,,,0.00,Wunderground v.1.15,2013-04-18 08:30:00,
2013-04-18 03:31:00,74.0,68.2,29.58,SSE,155,8.0,15.0,82,0.00,,,0.00,Wunderground v.1.15,2013-04-18 08:31:00,
2013-04-18 03:33:00,74.0,68.2,29.58,South,181,7.0,10.0,82,0.00,,,0.00,Wunderground v.1.15,2013-04-18 08:33:00,
2013-04-18 03:34:00,74.1,68.3,29.58,SSE,164,8.0,10.0,82,0.00,,,0.00,Wunderground v.1.15,2013-04-18 08:34:00,
2013-04-18 03:35:00,74.0,68.2,29.58,South,169,10.0,14.0,82,0.00,,,0.00,Wunderground v.1.15,2013-04-18 08:35:00,
2013-04-18 03:37:00,74.1,68.3,29.59,SSW,201,7.0,14.0,82,0.00,,,0.00,Wunderground v.1.15,2013-04-18 08:37:00,
2013-04-18 03:38:00,74.1,68.3,29.58,SSE,167,7.0,14.0,82,0.00,,,0.00,Wunderground v.1.15,2013-04-18 08:38:00,
2013-04-18 03:39:00,74.1,68.3,29.58,South,182,4.0,14.0,82,0.00,,,0.00,Wunderground v.1.15,2013-04-18 08:39:00,
2013-04-18 03:41:00,74.1,68.3,29.58,South,169,4.0,14.0,82,0.00,,,0.00,Wunderground v.1.15,2013-04-18 08:41:00,
2013-04-18 03:43:00,74.0,68.2,29.58,SSW,208,7.0,7.0,82,0.00,,,0.00,Wunderground v.1.15,2013-04-18 08:43:00,
2013-04-18 03:44:00,74.0,68.2,29.58,South,178,2.0,7.0,82,0.00,,,0.00,Wunderground v.1.15,2013-04-18 08:44:00,
2013-04-18 03:45:00,74.0,68.2,29.58,SSW,206,8.0,13.0,82,0.00,,,0.00,Wunderground v.1.15,2013-04-18 08:45:00,
2013-04-18 03:46:00,74.0,68.2,29.58,South,171,3.0,13.0,82,0.00,,,0.00,Wunderground v.1.15,2013-04-18 08:46:00,
2013-04-18 03:49:00,73.9,68.1,29.58,SSE,161,6.0,13.0,82,0.00,,,0.00,Wunderground v.1.15,2013-04-18 08:49:00,
2013-04-18 03:51:00,73.9,68.1,29.58,SSW,193,3.0,13.0,82,0.00,,,0.00,Wunderground v.1.15,2013-04-18 08:51:00,
2013-04-18 03:52:00,73.9,68.1,29.58,South,182,12.0,13.0,82,0.00,,,0.00,Wunderground v.1.15,2013-04-18 08:52:00,
2013-04-18 03:54:00,73.9,68.1,29.58,SSE,149,11.0,13.0,82,0.00,,,0.00,Wunderground v.1.15,2013-04-18 08:54:00,
2013-04-18 03:55:00,73.9,68.1,29.58,SE,144,9.0,13.0,82,0.00,,,0.00,Wunderground v.1.15,2013-04-18 08:55:00,
2013-04-18 03:56:00,73.9,68.1,29.58,South,173,5.0,13.0,82,0.00,,,0.00,Wunderground v.1.15,2013-04-18 08:56:00,
2013-04-18 03:57:00,73.9,68.1,29.58,SSW,194,7.0,13.0,82,0.00,,,0.00,Wunderground v.1.15,2013-04-18 08:57:00,
2013-04-18 04:00:00,73.8,68.0,29.58,SSW,192,8.0,13.0,82,0.00,,,0.00,Wunderground v.1.15,2013-04-18 09:00:00,
2013-04-18 04:01:00,73.8,68.0,29.58,South,182,8.0,13.0,82,0.00,,,0.00,Wunderground v.1.15,2013-04-18 09:01:00,
2013-04-18 04:02:00,73.7,67.9,29.58,SSE,164,13.0,13.0,82,0.00,,,0.00,Wunderground v.1.15,2013-04-18 09:02:00,
2013-04-18 04:05:00,73.7,67.9,29.58,SSE,165,11.0,12.0,82,0.00,,,0.00,Wunderground v.1.15,2013-04-18 09:05:00,
2013-04-18 04:06:00,73.6,67.8,29.58,SSE,163,4.0,12.0,82,0.00,,,0.00,Wunderground v.1.15,2013-04-18 09:06:00,
2013-04-18 04:07:00,73.6,67.8,29.57,South,187,9.0,14.0,82,0.00,,,0.00,Wunderground v.1.15,2013-04-18 09:07:00,
2013-04-18 04:08:00,73.5,67.7,29.57,South,169,6.0,14.0,82,0.00,,,0.00,Wunderground v.1.15,2013-04-18 09:08:00,
2013-04-18 04:11:00,73.4,67.9,29.57,SSW,211,5.0,14.0,83,0.00,,,0.00,Wunderground v.1.15,2013-04-18 09:11:00,
2013-04-18 04:12:00,73.4,67.9,29.57,South,175,6.0,14.0,83,0.00,,,0.00,Wunderground v.1.15,2013-04-18 09:12:00,
2013-04-18 04:13:00,73.4,67.9,29.57,SSW,194,6.0,12.0,83,0.00,,,0.00,Wunderground v.1.15,2013-04-18 09:13:00,
2013-04-18 04:16:00,73.3,67.8,29.58,South,183,9.0,12.0,83,0.00,,,0.00,Wunderground v.1.15,2013-04-18 09:16:00,
2013-04-18 04:17:00,73.3,67.8,29.58,SSE,166,5.0,12.0,83,0.00,,,0.00,Wunderground v.1.15,2013-04-18 09:17:00,
2013-04-18 04:18:00,73.3,67.8,29.58,SSE,161,11.0,15.0,83,0.00,,,0.00,Wunderground v.1.15,2013-04-18 09:18:00,
2013-04-18 04:19:00,73.3,67.8,29.58,South,182,7.0,15.0,83,0.00,,,0.00,Wunderground v.1.15,2013-04-18 09:19:00,
2013-04-18 04:22:00,73.2,67.7,29.57,SSW,192,3.0,15.0,83,0.00,,,0.00,Wunderground v.1.15,2013-04-18 09:22:00,
2013-04-18 04:23:00,73.2,67.7,29.57,SSW,211,7.0,9.0,83,0.00,,,0.00,Wunderground v.1.15,2013-04-18 09:23:00,
2013-04-18 04:24:00,73.2,67.7,29.58,South,178,6.0,10.0,83,0.00,,,0.00,Wunderground v.1.15,2013-04-18 09:24:00,
2013-04-18 04:27:00,73.1,67.6,29.58,South,185,2.0,11.0,83,0.00,,,0.00,Wunderground v.1.15,2013-04-18 09:27:00,
2013-04-18 04:28:00,73.1,67.6,29.58,South,176,4.0,11.0,83,0.00,,,0.00,Wunderground v.1.15,2013-04-18 09:28:00,
2013-04-18 04:29:00,73.1,67.6,29.58,South,179,10.0,12.0,83,0.00,,,0.00,Wunderground v.1.15,2013-04-18 09:29:00,
2013-04-18 04:30:00,73.1,67.6,29.58,South,190,7.0,12.0,83,0.00,,,0.00,Wunderground v.1.15,2013-04-18 09:30:00,
2013-04-18 04:32:00,73.1,67.6,29.58,South,175,4.0,12.0,83,0.00,,,0.00,Wunderground v.1.15,2013-04-18 09:32:00,
2013-04-18 04:33:00,73.0,67.5,29.58,SSE,164,5.0,12.0,83,0.00,,,0.00,Wunderground v.1.15,2013-04-18 09:33:00,
2013-04-18 04:34:00,73.0,67.5,29.58,SSE,168,10.0,10.0,83,0.00,,,0.00,Wunderground v.1.15,2013-04-18 09:34:00,
2013-04-18 04:35:00,73.0,67.5,29.58,South,173,8.0,10.0,83,0.00,,,0.00,Wunderground v.1.15,2013-04-18 09:35:00,
2013-04-18 04:38:00,73.0,67.5,29.58,SSW,211,9.0,10.0,83,0.00,,,0.00,Wunderground v.1.15,2013-04-18 09:38:00,
2013-04-18 04:39:00,73.0,67.5,29.58,SSE,160,10.0,10.0,83,0.00,,,0.00,Wunderground v.1.15,2013-04-18 09:39:00,
2013-04-18 04:40:00,73.0,67.5,29.58,South,175,4.0,10.0,83,0.00,,,0.00,Wunderground v.1.15,2013-04-18 09:40:00,
2013-04-18 04:42:00,72.9,67.4,29.58,SE,136,11.0,11.0,83,0.00,,,0.00,Wunderground v.1.15,2013-04-18 09:42:00,
2013-04-18 04:43:00,72.9,67.4,29.58,SSE,166,9.0,13.0,83,0.00,,,0.00,Wunderground v.1.15,2013-04-18 09:43:00,
2013-04-18 04:44:00,72.9,67.4,29.58,South,169,11.0,13.0,83,0.00,,,0.00,Wunderground v.1.15,2013-04-18 09:44:00,
2013-04-18 04:45:00,72.9,67.4,29.58,SSE,163,6.0,13.0,83,0.00,,,0.00,Wunderground v.1.15,2013-04-18 09:45:00,
2013-04-18 04:47:00,72.9,67.4,29.58,South,178,3.0,13.0,83,0.00,,,0.00,Wunderground v.1.15,2013-04-18 09:47:00,
2013-04-18 04:49:00,72.8,67.3,29.58,SSE,161,10.0,13.0,83,0.00,,,0.00,Wunderground v.1.15,2013-04-18 09:49:00,
2013-04-18 04:50:00,72.8,67.3,29.58,SSE,157,10.0,13.0,83,0.00,,,0.00,Wunderground v.1.15,2013-04-18 09:50:00,
2013-04-18 04:52:00,72.7,67.2,29.58,SSW,202,7.0,13.0,83,0.00,,,0.00,Wunderground v.1.15,2013-04-18 09:52:00,
2013-04-18 04:54:00,72.7,67.2,29.58,South,180,4.0,10.0,83,0.00,,,0.00,Wunderground v.1.15,2013-04-18 09:54:00,
2013-04-18 04:55:00,72.7,67.2,29.58,South,184,7.0,10.0,83,0.00,,,0.00,Wunderground v.1.15,2013-04-18 09:55:00,
2013-04-18 04:56:00,72.7,67.2,29.58,SSW,206,5.0,10.0,83,0.00,,,0.00,Wunderground v.1.15,2013-04-18 09:56:00,
2013-04-18 04:57:00,72.7,67.2,29.58,SSE,168,1.0,10.0,83,0.00,,,0.00,Wunderground v.1.15,2013-04-18 09:57:00,
2013-04-18 04:59:00,72.6,67.1,29.58,South,171,6.0,10.0,83,0.00,,,0.00,Wunderground v.1.15,2013-04-18 09:59:00,
2013-04-18 05:00:00,72.6,67.1,29.58,SSW,194,8.0,10.0,83,0.00,,,0.00,Wunderground v.1.15,2013-04-18 10:00:00,
2013-04-18 05:01:00,72.5,67.0,29.57,South,184,5.0,10.0,83,0.00,,,0.00,Wunderground v.1.15,2013-04-18 10:01:00,
2013-04-18 05:02:00,72.5,67.0,29.58,SSE,157,3.0,10.0,83,0.00,,,0.00,Wunderground v.1.15,2013-04-18 10:02:00,
2013-04-18 05:05:00,72.5,67.0,29.58,South,174,7.0,9.0,83,0.00,,,0.00,Wunderground v.1.15,2013-04-18 10:05:00,
2013-04-18 05:06:00,72.5,67.0,29.58,SSE,167,4.0,11.0,83,0.00,,,0.00,Wunderground v.1.15,2013-04-18 10:06:00,
2013-04-18 05:07:00,72.5,67.0,29.58,SSE,163,15.0,15.0,83,0.00,,,0.00,Wunderground v.1.15,2013-04-18 10:07:00,
2013-04-18 05:10:00,72.5,67.0,29.58,SSE,163,8.0,15.0,83,0.00,,,0.00,Wunderground v.1.15,2013-04-18 10:10:00,
2013-04-18 05:12:00,72.5,67.0,29.58,SSE,160,5.0,15.0,83,0.00,,,0.00,Wunderground v.1.15,2013-04-18 10:12:00,
2013-04-18 05:15:00,72.4,66.9,29.58,South,173,6.0,11.0,83,0.00,,,0.00,Wunderground v.1.15,2013-04-18 10:15:00,
2013-04-18 05:16:00,72.4,66.9,29.58,SSE,153,6.0,11.0,83,0.00,,,0.00,Wunderground v.1.15,2013-04-18 10:16:00,
2013-04-18 05:17:00,72.4,66.9,29.58,SSW,192,5.0,11.0,83,0.00,,,0.00,Wunderground v.1.15,2013-04-18 10:17:00,
2013-04-18 05:18:00,72.4,66.9,29.57,SSE,167,4.0,11.0,83,0.00,,,0.00,Wunderground v.1.15,2013-04-18 10:18:00,
2013-04-18 05:20:00,72.4,66.9,29.58,South,182,6.0,11.0,83,0.00,,,0.00,Wunderground v.1.15,2013-04-18 10:20:00,
2013-04-18 05:22:00,72.4,66.9,29.58,South,173,8.0,11.0,83,0.00,,,0.00,Wunderground v.1.15,2013-04-18 10:22:00,
2013-04-18 05:23:00,72.3,66.8,29.58,SSE,167,5.0,6.0,83,0.00,,,0.00,Wunderground v.1.15,2013-04-18 10:23:00,
2013-04-18 05:25:00,72.3,66.8,29.58,SSW,198,6.0,8.0,83,0.00,,,0.00,Wunderground v.1.15,2013-04-18 10:25:00,
2013-04-18 05:27:00,72.3,66.8,29.58,SSW,199,4.0,10.0,83,0.00,,,0.00,Wunderground v.1.15,2013-04-18 10:27:00,
2013-04-18 05:28:00,72.2,66.7,29.58,South,179,3.0,10.0,83,0.00,,,0.00,Wunderground v.1.15,2013-04-18 10:28:00,
2013-04-18 05:29:00,72.2,66.7,29.58,South,187,6.0,10.0,83,0.00,,,0.00,Wunderground v.1.15,2013-04-18 10:29:00,
2013-04-18 05:31:00,72.2,66.7,29.58,SSE,150,10.0,10.0,83,0.00,,,0.00,Wunderground v.1.15,2013-04-18 10:31:00,
2013-04-18 05:34:00,72.1,66.6,29.58,South,171,7.0,8.0,83,0.00,,,0.00,Wunderground v.1.15,2013-04-18 10:34:00,
2013-04-18 05:35:00,72.1,66.6,29.58,South,186,5.0,9.0,83,0.00,,,0.00,Wunderground v.1.15,2013-04-18 10:35:00,
2013-04-18 05:36:00,72.1,66.6,29.58,South,186,5.0,9.0,83,0.00,,,0.00,Wunderground v.1.15,2013-04-18 10:36:00,
2013-04-18 05:39:00,72.1,66.6,29.58,South,175,4.0,9.0,83,0.00,,,0.00,Wunderground v.1.15,2013-04-18 10:39:00,
2013-04-18 05:40:00,72.1,66.6,29.58,South,172,4.0,9.0,83,0.00,,,0.00,Wunderground v.1.15,2013-04-18 10:40:00,
2013-04-18 05:41:00,72.0,66.6,29.59,South,179,6.0,9.0,83,0.00,,,0.00,Wunderground v.1.15,2013-04-18 10:41:00,
2013-04-18 05:44:00,72.0,66.6,29.58,South,174,5.0,10.0,83,0.00,,,0.00,Wunderground v.1.15,2013-04-18 10:44:00,
2013-04-18 05:45:00,72.0,66.6,29.58,SSW,194,5.0,10.0,83,0.00,,,0.00,Wunderground v.1.15,2013-04-18 10:45:00,
2013-04-18 05:47:00,72.0,66.6,29.59,SE,133,5.0,10.0,83,0.00,,,0.00,Wunderground v.1.15,2013-04-18 10:47:00,
2013-04-18 05:48:00,72.0,66.6,29.59,South,190,8.0,11.0,83,0.00,,,0.00,Wunderground v.1.15,2013-04-18 10:48:00,
2013-04-18 05:50:00,72.0,66.6,29.58,SSE,157,13.0,13.0,83,0.00,,,0.00,Wunderground v.1.15,2013-04-18 10:50:00,
2013-04-18 05:52:00,71.9,66.5,29.58,South,184,5.0,13.0,83,0.00,,,0.00,Wunderground v.1.15,2013-04-18 10:52:00,
2013-04-18 05:54:00,71.9,66.5,29.58,South,181,8.0,10.0,83,0.00,,,0.00,Wunderground v.1.15,2013-04-18 10:54:00,
2013-04-18 05:55:00,71.9,66.5,29.58,SSE,159,7.0,11.0,83,0.00,,,0.00,Wunderground v.1.15,2013-04-18 10:55:00,
2013-04-18 05:56:00,71.9,66.5,29.58,SSE,166,4.0,11.0,83,0.00,,,0.00,Wunderground v.1.15,2013-04-18 10:56:00,
2013-04-18 05:57:00,71.9,66.5,29.58,South,173,4.0,11.0,83,0.00,,,0.00,Wunderground v.1.15,2013-04-18 10:57:00,
2013-04-18 05:59:00,71.8,66.4,29.58,South,171,10.0,11.0,83,0.00,,,0.00,Wunderground v.1.15,2013-04-18 10:59:00,
2013-04-18 06:00:00,71.8,66.4,29.59,South,169,4.0,11.0,83,0.00,,,0.00,Wunderground v.1.15,2013-04-18 11:00:00,
2013-04-18 06:01:00,71.8,66.4,29.58,South,180,8.0,11.0,83,0.00,,,0.00,Wunderground v.1.15,2013-04-18 11:01:00,
2013-04-18 06:02:00,71.8,66.4,29.58,South,186,5.0,11.0,83,0.00,,,0.00,Wunderground v.1.15,2013-04-18 11:02:00,
2013-04-18 06:05:00,71.8,66.4,29.58,SSE,164,4.0,10.0,83,0.00,,,0.00,Wunderground v.1.15,2013-04-18 11:05:00,
2013-04-18 06:07:00,71.8,66.4,29.58,SSW,201,6.0,10.0,83,0.00,,,0.00,Wunderground v.1.15,2013-04-18 11:07:00,
2013-04-18 06:08:00,71.8,66.4,29.58,SSE,164,6.0,10.0,83,0.00,,,0.00,Wunderground v.1.15,2013-04-18 11:08:00,
2013-04-18 06:10:00,71.7,66.3,29.59,SSW,204,7.0,12.0,83,0.00,,,0.00,Wunderground v.1.15,2013-04-18 11:10:00,
2013-04-18 06:12:00,71.7,66.3,29.59,South,184,6.0,12.0,83,0.00,,,0.00,Wunderground v.1.15,2013-04-18 11:12:00,
2013-04-18 06:13:00,71.7,66.3,29.59,SSE,163,4.0,6.0,83,0.00,,,0.00,Wunderground v.1.15,2013-04-18 11:13:00,
2013-04-18 06:14:00,71.7,66.3,29.59,South,171,7.0,10.0,83,0.00,,,0.00,Wunderground v.1.15,2013-04-18 11:14:00,
2013-04-18 06:15:00,71.7,66.3,29.59,SSW,194,6.0,10.0,83,0.00,,,0.00,Wunderground v.1.15,2013-04-18 11:15:00,
2013-04-18 06:17:00,71.7,66.3,29.59,South,175,7.0,10.0,83,0.00,,,0.00,Wunderground v.1.15,2013-04-18 11:17:00,
2013-04-18 06:18:00,71.7,66.3,29.59,SSE,156,9.0,11.0,83,0.00,,,0.00,Wunderground v.1.15,2013-04-18 11:18:00,
2013-04-18 06:19:00,71.7,65.9,29.59,SSE,166,10.0,15.0,82,0.00,,,0.00,Wunderground v.1.15,2013-04-18 11:19:00,
2013-04-18 06:20:00,71.7,65.9,29.59,SW,229,5.0,15.0,82,0.00,,,0.00,Wunderground v.1.15,2013-04-18 11:20:00,
2013-04-18 06:22:00,71.8,66.0,29.59,SSE,156,14.0,15.0,82,0.00,,,0.00,Wunderground v.1.15,2013-04-18 11:22:00,
2013-04-18 06:23:00,71.8,66.0,29.59,SSW,198,8.0,13.0,82,0.00,,,0.00,Wunderground v.1.15,2013-04-18 11:23:00,
2013-04-18 06:25:00,71.8,66.0,29.59,South,183,7.0,13.0,82,0.00,,,0.00,Wunderground v.1.15,2013-04-18 11:25:00,
2013-04-18 06:26:00,71.8,66.0,29.59,South,179,6.0,13.0,82,0.00,,,0.00,Wunderground v.1.15,2013-04-18 11:26:00,
2013-04-18 06:28:00,71.7,65.9,29.59,SSW,203,9.0,13.0,82,0.00,,,0.00,Wunderground v.1.15,2013-04-18 11:28:00,
2013-04-18 06:30:00,71.7,65.9,29.59,South,189,4.0,13.0,82,0.00,,,0.00,Wunderground v.1.15,2013-04-18 11:30:00,
2013-04-18 06:32:00,71.7,65.9,29.59,SSE,167,5.0,13.0,82,0.00,,,0.00,Wunderground v.1.15,2013-04-18 11:32:00,
2013-04-18 06:33:00,71.7,65.9,29.60,South,171,5.0,7.0,82,0.00,,,0.00,Wunderground v.1.15,2013-04-18 11:33:00,
2013-04-18 06:34:00,71.7,65.9,29.60,SSW,207,6.0,7.0,82,0.00,,,0.00,Wunderground v.1.15,2013-04-18 11:34:00,
2013-04-18 06:35:00,71.6,65.8,29.60,SSE,161,2.0,11.0,82,0.00,,,0.00,Wunderground v.1.15,2013-04-18 11:35:00,
2013-04-18 06:37:00,71.6,65.8,29.60,South,188,14.0,14.0,82,0.00,,,0.00,Wunderground v.1.15,2013-04-18 11:37:00,
2013-04-18 06:38:00,71.6,65.8,29.60,SSW,196,6.0,14.0,82,0.00,,,0.00,Wunderground v.1.15,2013-04-18 11:38:00,
2013-04-18 06:39:00,71.6,65.8,29.60,SSE,155,10.0,14.0,82,0.00,,,0.00,Wunderground v.1.15,2013-04-18 11:39:00,
2013-04-18 06:40:00,71.6,65.8,29.60,South,171,5.0,14.0,82,0.00,,,0.00,Wunderground v.1.15,2013-04-18 11:40:00,
2013-04-18 06:42:00,71.6,65.8,29.60,SSE,156,6.0,14.0,82,0.00,,,0.00,Wunderground v.1.15,2013-04-18 11:42:00,
2013-04-18 06:44:00,71.7,65.9,29.60,South,178,6.0,13.0,82,0.00,,,0.00,Wunderground v.1.15,2013-04-18 11:44:00,
2013-04-18 06:45:00,71.6,65.8,29.60,SSE,163,6.0,13.0,82,0.00,,,0.00,Wunderground v.1.15,2013-04-18 11:45:00,
2013-04-18 06:47:00,71.6,65.8,29.60,South,182,8.0,13.0,82,0.00,,,0.00,Wunderground v.1.15,2013-04-18 11:47:00,
2013-04-18 06:49:00,71.6,65.8,29.60,SSE,148,5.0,13.0,82,0.00,,,0.00,Wunderground v.1.15,2013-04-18 11:49:00,
2013-04-18 06:50:00,71.6,65.8,29.60,SSW,207,7.0,13.0,82,0.00,,,0.00,Wunderground v.1.15,2013-04-18 11:50:00,
2013-04-18 06:52:00,71.6,65.8,29.60,South,169,4.0,13.0,82,0.00,,,0.00,Wunderground v.1.15,2013-04-18 11:52:00,
2013-04-18 06:55:00,71.5,65.7,29.60,South,173,6.0,7.0,82,0.00,,,0.00,Wunderground v.1.15,2013-04-18 11:55:00,
2013-04-18 06:57:00,71.4,65.6,29.60,SSE,167,6.0,10.0,82,0.00,,,0.00,Wunderground v.1.15,2013-04-18 11:57:00,
2013-04-18 06:58:00,71.4,65.6,29.60,SSW,192,4.0,10.0,82,0.00,,,0.00,Wunderground v.1.15,2013-04-18 11:58:00,
2013-04-18 07:00:00,71.3,65.5,29.60,SSE,160,10.0,10.0,82,0.00,,,0.00,Wunderground v.1.15,2013-04-18 12:00:00,
2013-04-18 07:01:00,71.3,65.5,29.60,South,180,10.0,10.0,82,0.00,,,0.00,Wunderground v.1.15,2013-04-18 12:01:00,
2013-04-18 07:02:00,71.3,65.5,29.60,SSE,160,7.0,10.0,82,0.00,,,0.00,Wunderground v.1.15,2013-04-18 12:02:00,
2013-04-18 07:03:00,71.3,65.5,29.60,SSE,153,6.0,6.0,82,0.00,,,0.00,Wunderground v.1.15,2013-04-18 12:03:00,
2013-04-18 07:05:00,71.3,65.5,29.60,South,184,5.0,9.0,82,0.00,,,0.00,Wunderground v.1.15,2013-04-18 12:05:00,
2013-04-18 07:06:00,71.3,65.5,29.60,SSE,160,4.0,9.0,82,0.00,,,0.00,Wunderground v.1.15,2013-04-18 12:06:00,
2013-04-18 07:08:00,71.3,65.5,29.60,South,178,5.0,9.0,82,0.00,,,0.00,Wunderground v.1.15,2013-04-18 12:08:00,
2013-04-18 07:09:00,71.3,65.5,29.61,SSE,165,4.0,9.0,82,0.00,,,0.00,Wunderground v.1.15,2013-04-18 12:09:00,
2013-04-18 07:10:00,71.3,65.5,29.61,SSE,165,6.0,9.0,82,0.00,,,0.00,Wunderground v.1.15,2013-04-18 12:10:00,
2013-04-18 07:11:00,71.3,65.5,29.61,South,171,7.0,9.0,82,0.00,,,0.00,Wunderground v.1.15,2013-04-18 12:11:00,
2013-04-18 07:12:00,71.3,65.5,29.61,South,182,4.0,9.0,82,0.00,,,0.00,Wunderground v.1.15,2013-04-18 12:12:00,
2013-04-18 07:13:00,71.2,65.4,29.61,SSE,157,6.0,10.0,82,0.00,,,0.00,Wunderground v.1.15,2013-04-18 12:13:00,
2013-04-18 07:14:00,71.2,65.4,29.60,South,178,1.0,10.0,82,0.00,,,0.00,Wunderground v.1.15,2013-04-18 12:14:00,
2013-04-18 07:15:00,71.2,65.4,29.61,South,190,6.0,10.0,82,0.00,,,0.00,Wunderground v.1.15,2013-04-18 12:15:00,
2013-04-18 07:16:00,71.2,65.4,29.61,South,188,4.0,10.0,82,0.00,,,0.00,Wunderground v.1.15,2013-04-18 12:16:00,
2013-04-18 07:17:00,71.1,65.3,29.61,SSE,165,2.0,10.0,82,0.00,,,0.00,Wunderground v.1.15,2013-04-18 12:17:00,
2013-04-18 07:18:00,71.1,65.3,29.61,South,183,0.0,10.0,82,0.00,,,0.00,Wunderground v.1.15,2013-04-18 12:18:00,
2013-04-18 07:19:00,71.1,65.3,29.61,SSE,150,7.0,10.0,82,0.00,,,0.00,Wunderground v.1.15,2013-04-18 12:19:00,
2013-04-18 07:21:00,71.1,65.3,29.61,South,180,0.0,10.0,82,0.00,,,0.00,Wunderground v.1.15,2013-04-18 12:21:00,
2013-04-18 07:22:00,71.0,65.2,29.61,SSE,165,7.0,10.0,82,0.00,,,0.00,Wunderground v.1.15,2013-04-18 12:22:00,
2013-04-18 07:24:00,71.0,65.2,29.61,SSW,200,7.0,9.0,82,0.00,,,0.00,Wunderground v.1.15,2013-04-18 12:24:00,
2013-04-18 07:26:00,71.0,65.2,29.61,SSE,160,4.0,9.0,82,0.00,,,0.00,Wunderground v.1.15,2013-04-18 12:26:00,
2013-04-18 07:27:00,71.0,65.2,29.61,SSE,165,6.0,9.0,82,0.00,,,0.00,Wunderground v.1.15,2013-04-18 12:27:00,
2013-04-18 07:29:00,71.0,65.2,29.61,South,176,0.0,9.0,82,0.00,,,0.00,Wunderground v.1.15,2013-04-18 12:29:00,
2013-04-18 07:30:00,71.0,65.2,29.61,South,174,3.0,10.0,82,0.00,,,0.00,Wunderground v.1.15,2013-04-18 12:30:00,
2013-04-18 07:32:00,71.0,65.2,29.61,South,169,4.0,16.0,82,0.00,,,0.00,Wunderground v.1.15,2013-04-18 12:32:00,
2013-04-18 07:35:00,71.0,65.2,29.61,South,181,4.0,9.0,82,0.00,,,0.00,Wunderground v.1.15,2013-04-18 12:35:00,
2013-04-18 07:37:00,71.0,65.2,29.61,South,191,5.0,9.0,82,0.00,,,0.00,Wunderground v.1.15,2013-04-18 12:37:00,
2013-04-18 07:38:00,71.0,65.2,29.61,South,183,3.0,10.0,82,0.00,,,0.00,Wunderground v.1.15,2013-04-18 12:38:00,
2013-04-18 07:40:00,70.9,65.1,29.61,South,184,5.0,10.0,82,0.00,,,0.00,Wunderground v.1.15,2013-04-18 12:40:00,
2013-04-18 07:42:00,70.9,65.1,29.60,SSW,194,4.0,11.0,82,0.00,,,0.00,Wunderground v.1.15,2013-04-18 12:42:00,
2013-04-18 07:44:00,70.9,65.1,29.60,South,184,5.0,8.0,82,0.00,,,0.00,Wunderground v.1.15,2013-04-18 12:44:00,
2013-04-18 07:45:00,70.9,65.1,29.60,SSE,161,11.0,11.0,82,0.00,,,0.00,Wunderground v.1.15,2013-04-18 12:45:00,
2013-04-18 07:46:00,70.8,65.0,29.60,SSE,164,0.0,11.0,82,0.00,,,0.00,Wunderground v.1.15,2013-04-18 12:46:00,
2013-04-18 07:47:00,70.9,65.1,29.60,SSE,163,10.0,11.0,82,0.00,,,0.00,Wunderground v.1.15,2013-04-18 12:47:00,
2013-04-18 07:49:00,70.8,65.0,29.60,SSW,211,6.0,11.0,82,0.00,,,0.00,Wunderground v.1.15,2013-04-18 12:49:00,
2013-04-18 07:51:00,70.9,65.1,29.60,SSW,195,7.0,11.0,82,0.00,,,0.00,Wunderground v.1.15,2013-04-18 12:51:00,
2013-04-18 07:52:00,70.8,65.0,29.60,South,170,4.0,11.0,82,0.00,,,0.00,Wunderground v.1.15,2013-04-18 12:52:00,
2013-04-18 07:53:00,70.8,65.0,29.60,South,171,5.0,11.0,82,0.00,,,0.00,Wunderground v.1.15,2013-04-18 12:53:00,
2013-04-18 07:54:00,70.8,64.7,29.60,SSE,164,5.0,7.0,81,0.00,,,0.00,Wunderground v.1.15,2013-04-18 12:54:00,
2013-04-18 07:55:00,70.8,65.0,29.60,SSW,198,5.0,9.0,82,0.00,,,0.00,Wunderground v.1.15,2013-04-18 12:55:00,
2013-04-18 07:57:00,70.8,64.7,29.60,South,171,10.0,13.0,81,0.00,,,0.00,Wunderground v.1.15,2013-04-18 12:57:00,
2013-04-18 07:58:00,70.8,64.7,29.60,South,180,7.0,13.0,81,0.00,,,0.00,Wunderground v.1.15,2013-04-18 12:58:00,
2013-04-18 07:59:00,70.9,64.8,29.60,SSE,163,9.0,13.0,81,0.00,,,0.00,Wunderground v.1.15,2013-04-18 12:59:00,
2013-04-18 08:02:00,70.9,64.8,29.60,SSE,150,7.0,13.0,81,0.00,,,0.00,Wunderground v.1.15,2013-04-18 13:02:00,
2013-04-18 08:03:00,70.9,64.8,29.60,SSW,199,8.0,8.0,81,0.00,,,0.00,Wunderground v.1.15,2013-04-18 13:03:00,
2013-04-18 08:04:00,70.9,64.4,29.60,SSW,207,7.0,18.0,80,0.00,,,0.00,Wunderground v.1.15,2013-04-18 13:04:00,
2013-04-18 08:07:00,70.9,64.8,29.59,South,191,9.0,18.0,81,0.00,,,0.00,Wunderground v.1.15,2013-04-18 13:07:00,
2013-04-18 08:08:00,70.9,64.8,29.59,South,186,5.0,18.0,81,0.00,,,0.00,Wunderground v.1.15,2013-04-18 13:08:00,
2013-04-18 08:09:00,71.0,64.9,29.59,SSW,204,6.0,18.0,81,0.00,,,0.00,Wunderground v.1.15,2013-04-18 13:09:00,
2013-04-18 08:10:00,71.0,64.9,29.59,South,190,2.0,18.0,81,0.00,,,0.00,Wunderground v.1.15,2013-04-18 13:10:00,
2013-04-18 08:12:00,71.0,64.5,29.59,SSW,192,5.0,18.0,80,0.00,,,0.00,Wunderground v.1.15,2013-04-18 13:12:00,
2013-04-18 08:13:00,71.0,64.5,29.59,South,184,6.0,7.0,80,0.00,,,0.00,Wunderground v.1.15,2013-04-18 13:13:00,
2013-04-18 08:14:00,71.1,64.6,29.59,SSE,167,5.0,10.0,80,0.00,,,0.00,Wunderground v.1.15,2013-04-18 13:14:00,
2013-04-18 08:15:00,71.1,64.6,29.59,South,190,7.0,10.0,80,0.00,,,0.00,Wunderground v.1.15,2013-04-18 13:15:00,
2013-04-18 08:18:00,71.2,64.7,29.59,SSW,200,5.0,10.0,80,0.00,,,0.00,Wunderground v.1.15,2013-04-18 13:18:00,
2013-04-18 08:20:00,71.2,64.4,29.59,SSW,209,5.0,16.0,79,0.00,,,0.00,Wunderground v.1.15,2013-04-18 13:20:00,
2013-04-18 08:21:00,71.2,64.7,29.59,SSE,165,5.0,16.0,80,0.00,,,0.00,Wunderground v.1.15,2013-04-18 13:21:00,
2013-04-18 08:23:00,71.3,64.8,29.59,South,171,7.0,11.0,80,0.00,,,0.00,Wunderground v.1.15,2013-04-18 13:23:00,
2013-04-18 08:26:00,71.3,64.4,29.59,SSE,161,10.0,12.0,79,0.00,,,0.00,Wunderground v.1.15,2013-04-18 13:26:00,
2013-04-18 08:27:00,71.3,64.4,29.58,South,178,6.0,14.0,79,0.00,,,0.00,Wunderground v.1.15,2013-04-18 13:27:00,
2013-04-18 08:29:00,71.4,64.5,29.58,SSW,201,7.0,14.0,79,0.00,,,0.00,Wunderground v.1.15,2013-04-18 13:29:00,
2013-04-18 08:30:00,71.4,64.5,29.58,South,174,4.0,14.0,79,0.00,,,0.00,Wunderground v.1.15,2013-04-18 13:30:00,
2013-04-18 08:31:00,71.4,64.5,29.58,South,178,5.0,14.0,79,0.00,,,0.00,Wunderground v.1.15,2013-04-18 13:31:00,
2013-04-18 08:33:00,71.5,64.3,29.58,South,169,8.0,8.0,78,0.00,,,0.00,Wunderground v.1.15,2013-04-18 13:33:00,
2013-04-18 08:34:00,71.5,64.3,29.58,South,185,7.0,15.0,78,0.00,,,0.00,Wunderground v.1.15,2013-04-18 13:34:00,
2013-04-18 08:35:00,71.5,64.3,29.58,South,185,3.0,15.0,78,0.00,,,0.00,Wunderground v.1.15,2013-04-18 13:35:00,
2013-04-18 08:36:00,71.5,64.3,29.58,South,185,8.0,15.0,78,0.00,,,0.00,Wunderground v.1.15,2013-04-18 13:36:00,
2013-04-18 08:37:00,71.5,64.3,29.58,South,171,12.0,15.0,78,0.00,,,0.00,Wunderground v.1.15,2013-04-18 13:37:00,
2013-04-18 08:38:00,71.6,64.4,29.58,South,179,6.0,15.0,78,0.00,,,0.00,Wunderground v.1.15,2013-04-18 13:38:00,
2013-04-18 08:39:00,71.6,64.4,29.58,SSE,163,8.0,15.0,78,0.00,,,0.00,Wunderground v.1.15,2013-04-18 13:39:00,
2013-04-18 08:40:00,71.6,64.4,29.58,South,179,8.0,15.0,78,0.00,,,0.00,Wunderground v.1.15,2013-04-18 13:40:00,
2013-04-18 08:42:00,71.6,64.4,29.58,South,175,5.0,15.0,78,0.00,,,0.00,Wunderground v.1.15,2013-04-18 13:42:00,
2013-04-18 08:43:00,71.7,64.5,29.58,SSE,163,5.0,7.0,78,0.00,,,0.00,Wunderground v.1.15,2013-04-18 13:43:00,
2013-04-18 08:45:00,71.7,64.1,29.58,SSW,196,6.0,7.0,77,0.00,,,0.00,Wunderground v.1.15,2013-04-18 13:45:00,
2013-04-18 08:47:00,71.8,64.2,29.58,South,175,5.0,10.0,77,0.00,,,0.00,Wunderground v.1.15,2013-04-18 13:47:00,
2013-04-18 08:48:00,71.8,63.8,29.58,South,178,9.0,13.0,76,0.00,,,0.00,Wunderground v.1.15,2013-04-18 13:48:00,
2013-04-18 08:49:00,71.8,63.8,29.58,South,182,9.0,13.0,76,0.00,,,0.00,Wunderground v.1.15,2013-04-18 13:49:00,
2013-04-18 08:50:00,71.9,63.9,29.58,SSE,160,15.0,15.0,76,0.00,,,0.00,Wunderground v.1.15,2013-04-18 13:50:00,
2013-04-18 08:53:00,71.9,63.9,29.58,SSE,165,7.0,15.0,76,0.00,,,0.00,Wunderground v.1.15,2013-04-18 13:53:00,
2013-04-18 08:54:00,71.9,63.5,29.58,South,190,8.0,10.0,75,0.00,,,0.00,Wunderground v.1.15,2013-04-18 13:54:00,
2013-04-18 08:55:00,71.9,63.9,29.58,South,178,5.0,11.0,76,0.00,,,0.00,Wunderground v.1.15,2013-04-18 13:55:00,
2013-04-18 08:58:00,72.0,63.6,29.58,South,188,10.0,13.0,75,0.00,,,0.00,Wunderground v.1.15,2013-04-18 13:58:00,
2013-04-18 08:59:00,72.0,63.6,29.58,South,178,3.0,13.0,75,0.00,,,0.00,Wunderground v.1.15,2013-04-18 13:59:00,
2013-04-18 09:00:00,72.0,64.0,29.58,South,176,6.0,13.0,76,0.00,,,0.00,Wunderground v.1.15,2013-04-18 14:00:00,
2013-04-18 09:03:00,72.1,63.4,29.58,South,186,17.0,17.0,74,0.00,,,0.00,Wunderground v.1.15,2013-04-18 14:03:00,
2013-04-18 09:04:00,72.1,63.4,29.58,South,182,10.0,17.0,74,0.00,,,0.00,Wunderground v.1.15,2013-04-18 14:04:00,
2013-04-18 09:06:00,72.1,63.4,29.58,SSW,205,9.0,17.0,74,0.00,,,0.00,Wunderground v.1.15,2013-04-18 14:06:00,
2013-04-18 09:08:00,72.2,63.4,29.58,SSE,150,5.0,17.0,74,0.00,,,0.00,Wunderground v.1.15,2013-04-18 14:08:00,
2013-04-18 09:09:00,72.2,63.8,29.58,SSE,164,0.0,17.0,75,0.00,,,0.00,Wunderground v.1.15,2013-04-18 14:09:00,
2013-04-18 09:10:00,72.2,63.8,29.58,SSW,197,4.0,17.0,75,0.00,,,0.00,Wunderground v.1.15,2013-04-18 14:10:00,
2013-04-18 09:11:00,72.3,63.5,29.58,SSE,167,6.0,17.0,74,0.00,,,0.00,Wunderground v.1.15,2013-04-18 14:11:00,
2013-04-18 09:13:00,72.4,63.3,29.58,South,171,7.0,15.0,73,0.00,,,0.00,Wunderground v.1.15,2013-04-18 14:13:00,
2013-04-18 09:14:00,72.4,63.6,29.58,SSE,168,12.0,15.0,74,0.00,,,0.00,Wunderground v.1.15,2013-04-18 14:14:00,
2013-04-18 09:15:00,72.4,63.3,29.58,SSE,168,6.0,15.0,73,0.00,,,0.00,Wunderground v.1.15,2013-04-18 14:15:00,
2013-04-18 09:17:00,72.4,63.3,29.58,WSW,242,3.0,15.0,73,0.00,,,0.00,Wunderground v.1.15,2013-04-18 14:17:00,
2013-04-18 09:19:00,72.5,63.4,29.58,South,176,4.0,16.0,73,0.00,,,0.00,Wunderground v.1.15,2013-04-18 14:19:00,
2013-04-18 09:20:00,72.6,63.4,29.58,South,180,5.0,16.0,73,0.00,,,0.00,Wunderground v.1.15,2013-04-18 14:20:00,
2013-04-18 09:22:00,72.7,63.5,29.58,SSE,163,9.0,16.0,73,0.00,,,0.00,Wunderground v.1.15,2013-04-18 14:22:00,
2013-04-18 09:24:00,72.8,63.2,29.57,South,173,10.0,10.0,72,0.00,,,0.00,Wunderground v.1.15,2013-04-18 14:24:00,
2013-04-18 09:25:00,72.8,63.2,29.58,SSE,149,3.0,10.0,72,0.00,,,0.00,Wunderground v.1.15,2013-04-18 14:25:00,
2013-04-18 09:26:00,72.9,63.7,29.57,South,191,7.0,10.0,73,0.00,,,0.00,Wunderground v.1.15,2013-04-18 14:26:00,
2013-04-18 09:27:00,73.0,63.4,29.57,South,175,9.0,13.0,72,0.00,,,0.00,Wunderground v.1.15,2013-04-18 14:27:00,
2013-04-18 09:30:00,73.1,63.5,29.57,SSE,157,10.0,13.0,72,0.00,,,0.00,Wunderground v.1.15,2013-04-18 14:30:00,
2013-04-18 09:31:00,73.1,63.1,29.57,South,171,10.0,14.0,71,0.00,,,0.00,Wunderground v.1.15,2013-04-18 14:31:00,
2013-04-18 09:32:00,73.1,63.5,29.57,South,175,11.0,14.0,72,0.00,,,0.00,Wunderground v.1.15,2013-04-18 14:32:00,
2013-04-18 09:35:00,73.3,63.7,29.57,SSE,163,11.0,13.0,72,0.00,,,0.00,Wunderground v.1.15,2013-04-18 14:35:00,
2013-04-18 09:36:00,73.4,63.4,29.57,South,170,9.0,13.0,71,0.00,,,0.00,Wunderground v.1.15,2013-04-18 14:36:00,
2013-04-18 09:37:00,73.4,63.4,29.56,SSE,164,12.0,14.0,71,0.00,,,0.00,Wunderground v.1.15,2013-04-18 14:37:00,
2013-04-18 09:40:00,73.5,63.1,29.56,South,184,6.0,14.0,70,0.00,,,0.00,Wunderground v.1.15,2013-04-18 14:40:00,
2013-04-18 09:41:00,73.6,63.6,29.56,South,188,9.0,14.0,71,0.00,,,0.00,Wunderground v.1.15,2013-04-18 14:41:00,
2013-04-18 09:42:00,73.6,63.6,29.56,SSW,209,6.0,14.0,71,0.00,,,0.00,Wunderground v.1.15,2013-04-18 14:42:00,
2013-04-18 09:43:00,73.7,63.7,29.56,SSE,163,8.0,8.0,71,0.00,,,0.00,Wunderground v.1.15,2013-04-18 14:43:00,
2013-04-18 09:46:00,73.8,63.8,29.56,South,176,7.0,12.0,71,0.00,,,0.00,Wunderground v.1.15,2013-04-18 14:46:00,
2013-04-18 09:47:00,73.8,63.8,29.56,SSE,164,5.0,12.0,71,0.00,,,0.00,Wunderground v.1.15,2013-04-18 14:47:00,
2013-04-18 09:48:00,73.9,63.5,29.56,SSW,207,3.0,12.0,70,0.00,,,0.00,Wunderground v.1.15,2013-04-18 14:48:00,
2013-04-18 09:49:00,73.9,63.5,29.57,SSW,209,10.0,22.0,70,0.00,,,0.00,Wunderground v.1.15,2013-04-18 14:49:00,
2013-04-18 09:51:00,74.0,63.6,29.57,SSW,194,15.0,22.0,70,0.00,,,0.00,Wunderground v.1.15,2013-04-18 14:51:00,
2013-04-18 09:52:00,74.0,63.6,29.57,SSW,199,13.0,22.0,70,0.00,,,0.00,Wunderground v.1.15,2013-04-18 14:52:00,
2013-04-18 09:53:00,74.0,63.6,29.57,SSE,156,11.0,11.0,70,0.00,,,0.00,Wunderground v.1.15,2013-04-18 14:53:00,
2013-04-18 09:54:00,74.1,63.7,29.57,South,175,11.0,13.0,70,0.00,,,0.00,Wunderground v.1.15,2013-04-18 14:54:00,
2013-04-18 09:57:00,74.3,63.9,29.57,SSE,161,4.0,13.0,70,0.00,,,0.00,Wunderground v.1.15,2013-04-18 14:57:00,
2013-04-18 09:59:00,74.4,63.6,29.56,SSE,155,9.0,15.0,69,0.00,,,0.00,Wunderground v.1.15,2013-04-18 14:59:00,
2013-04-18 10:00:00,74.5,64.1,29.57,SSE,148,13.0,15.0,70,0.00,,,0.00,Wunderground v.1.15,2013-04-18 15:00:00,
2013-04-18 10:02:00,74.7,63.4,29.57,SSE,163,9.0,15.0,68,0.00,,,0.00,Wunderground v.1.15,2013-04-18 15:02:00,
2013-04-18 10:03:00,74.7,63.4,29.56,South,171,7.0,13.0,68,0.00,,,0.00,Wunderground v.1.15,2013-04-18 15:03:00,
2013-04-18 10:04:00,74.8,64.4,29.57,SSW,193,5.0,13.0,70,0.00,,,0.00,Wunderground v.1.15,2013-04-18 15:04:00,
2013-04-18 10:05:00,74.9,63.6,29.57,South,182,7.0,13.0,68,0.00,,,0.00,Wunderground v.1.15,2013-04-18 15:05:00,
2013-04-18 10:07:00,75.2,63.5,29.57,SSW,198,9.0,14.0,67,0.00,,,0.00,Wunderground v.1.15,2013-04-18 15:07:00,
2013-04-18 10:08:00,75.2,63.5,29.57,SSE,157,14.0,14.0,67,0.00,,,0.00,Wunderground v.1.15,2013-04-18 15:08:00,
2013-04-18 10:09:00,75.3,63.6,29.57,South,175,20.0,20.0,67,0.00,,,0.00,Wunderground v.1.15,2013-04-18 15:09:00,
2013-04-18 10:10:00,75.4,63.7,29.57,SSW,200,15.0,20.0,67,0.00,,,0.00,Wunderground v.1.15,2013-04-18 15:10:00,
2013-04-18 10:13:00,75.6,63.0,29.57,South,187,14.0,14.0,65,0.00,,,0.00,Wunderground v.1.15,2013-04-18 15:13:00,
2013-04-18 10:14:00,75.7,64.0,29.57,South,184,11.0,16.0,67,0.00,,,0.00,Wunderground v.1.15,2013-04-18 15:14:00,
2013-04-18 10:16:00,75.8,63.2,29.57,South,186,9.0,16.0,65,0.00,,,0.00,Wunderground v.1.15,2013-04-18 15:16:00,
2013-04-18 10:18:00,76.2,64.4,29.57,South,175,6.0,16.0,67,0.00,,,0.00,Wunderground v.1.15,2013-04-18 15:18:00,
2013-04-18 10:19:00,76.4,64.6,29.58,South,171,3.0,16.0,67,0.00,,,0.00,Wunderground v.1.15,2013-04-18 15:19:00,
2013-04-18 10:20:00,76.5,63.9,29.58,SSE,166,17.0,17.0,65,0.00,,,0.00,Wunderground v.1.15,2013-04-18 15:20:00,
2013-04-18 10:21:00,76.6,63.5,29.58,SSE,160,11.0,17.0,64,0.00,,,0.00,Wunderground v.1.15,2013-04-18 15:21:00,
2013-04-18 10:23:00,76.8,63.2,29.58,South,170,7.0,10.0,63,0.00,,,0.00,Wunderground v.1.15,2013-04-18 15:23:00,
2013-04-18 10:25:00,76.8,63.2,29.58,ESE,108,3.0,14.0,63,0.00,,,0.00,Wunderground v.1.15,2013-04-18 15:25:00,
2013-04-18 10:26:00,76.8,63.2,29.58,SSE,160,7.0,14.0,63,0.00,,,0.00,Wunderground v.1.15,2013-04-18 15:26:00,
2013-04-18 10:28:00,76.8,63.2,29.58,SSE,163,5.0,14.0,63,0.00,,,0.00,Wunderground v.1.15,2013-04-18 15:28:00,
2013-04-18 10:29:00,76.8,63.2,29.59,SSE,160,0.0,14.0,63,0.00,,,0.00,Wunderground v.1.15,2013-04-18 15:29:00,
2013-04-18 10:30:00,76.9,63.8,29.59,SSE,148,3.0,14.0,64,0.00,,,0.00,Wunderground v.1.15,2013-04-18 15:30:00,
2013-04-18 10:31:00,77.0,63.4,29.59,SSE,167,4.0,14.0,63,0.00,,,0.00,Wunderground v.1.15,2013-04-18 15:31:00,
2013-04-18 10:32:00,77.0,63.4,29.59,SSE,152,6.0,14.0,63,0.00,,,0.00,Wunderground v.1.15,2013-04-18 15:32:00,
2013-04-18 10:34:00,77.0,63.4,29.59,SE,130,5.0,7.0,63,0.00,,,0.00,Wunderground v.1.15,2013-04-18 15:34:00,
2013-04-18 10:35:00,77.0,63.0,29.59,SSE,161,11.0,15.0,62,0.00,,,0.00,Wunderground v.1.15,2013-04-18 15:35:00,
2013-04-18 10:37:00,76.9,62.9,29.59,West,275,1.0,15.0,62,0.00,,,0.00,Wunderground v.1.15,2013-04-18 15:37:00,
2013-04-18 10:39:00,77.0,63.0,29.59,South,174,6.0,15.0,62,0.00,,,0.00,Wunderground v.1.15,2013-04-18 15:39:00,
2013-04-18 10:42:00,77.2,63.2,29.59,SSE,157,0.0,15.0,62,0.00,,,0.00,Wunderground v.1.15,2013-04-18 15:42:00,
2013-04-18 10:43:00,77.3,64.2,29.59,SSE,157,6.0,15.0,64,0.00,,,0.00,Wunderground v.1.15,2013-04-18 15:43:00,
2013-04-18 10:44:00,77.5,63.5,29.58,South,175,6.0,10.0,62,0.00,,,0.00,Wunderground v.1.15,2013-04-18 15:44:00,
2013-04-18 10:47:00,77.8,63.3,29.59,South,169,0.0,10.0,61,0.00,,,0.00,Wunderground v.1.15,2013-04-18 15:47:00,
2013-04-18 10:48:00,77.8,63.3,29.59,SSE,148,6.0,11.0,61,0.00,,,0.00,Wunderground v.1.15,2013-04-18 15:48:00,
2013-04-18 10:49:00,77.8,63.3,29.59,South,170,5.0,11.0,61,0.00,,,0.00,Wunderground v.1.15,2013-04-18 15:49:00,
2013-04-18 10:50:00,77.8,63.3,29.59,SSW,192,4.0,12.0,61,0.00,,,0.00,Wunderground v.1.15,2013-04-18 15:50:00,
2013-04-18 10:52:00,77.8,62.8,29.59,SSE,159,5.0,12.0,60,0.00,,,0.00,Wunderground v.1.15,2013-04-18 15:52:00,
2013-04-18 10:54:00,77.7,63.2,29.59,SSE,157,10.0,10.0,61,0.00,,,0.00,Wunderground v.1.15,2013-04-18 15:54:00,
2013-04-18 10:55:00,77.7,62.7,29.59,SSE,167,3.0,10.0,60,0.00,,,0.00,Wunderground v.1.15,2013-04-18 15:55:00,
2013-04-18 10:56:00,77.5,62.5,29.59,SSE,159,7.0,10.0,60,0.00,,,0.00,Wunderground v.1.15,2013-04-18 15:56:00,
2013-04-18 10:58:00,77.4,62.4,29.59,SSE,165,10.0,10.0,60,0.00,,,0.00,Wunderground v.1.15,2013-04-18 15:58:00,
2013-04-18 10:59:00,77.4,63.4,29.59,SSE,159,8.0,10.0,62,0.00,,,0.00,Wunderground v.1.15,2013-04-18 15:59:00,
2013-04-18 11:00:00,77.3,62.3,29.59,NW,312,0.0,10.0,60,0.00,,,0.00,Wunderground v.1.15,2013-04-18 16:00:00,
2013-04-18 11:02:00,77.3,62.8,29.59,SSW,194,3.0,10.0,61,0.00,,,0.00,Wunderground v.1.15,2013-04-18 16:02:00,
2013-04-18 11:03:00,77.3,62.3,29.58,South,178,0.0,5.0,60,0.00,,,0.00,Wunderground v.1.15,2013-04-18 16:03:00,
2013-04-18 11:06:00,77.3,62.3,29.59,SSE,153,5.0,13.0,60,0.00,,,0.00,Wunderground v.1.15,2013-04-18 16:06:00,
2013-04-18 11:07:00,77.4,62.9,29.58,ESE,118,5.0,13.0,61,0.00,,,0.00,Wunderground v.1.15,2013-04-18 16:07:00,
2013-04-18 11:08:00,77.5,63.0,29.59,SSW,199,5.0,13.0,61,0.00,,,0.00,Wunderground v.1.15,2013-04-18 16:08:00,
2013-04-18 11:11:00,77.7,63.2,29.58,South,175,0.0,13.0,61,0.00,,,0.00,Wunderground v.1.15,2013-04-18 16:11:00,
2013-04-18 11:12:00,77.9,63.8,29.58,SSE,163,6.0,13.0,62,0.00,,,0.00,Wunderground v.1.15,2013-04-18 16:12:00,
2013-04-18 11:13:00,77.9,63.4,29.58,South,170,7.0,13.0,61,0.00,,,0.00,Wunderground v.1.15,2013-04-18 16:13:00,
2013-04-18 11:14:00,78.0,63.5,29.58,SSE,153,0.0,7.0,61,0.00,,,0.00,Wunderground v.1.15,2013-04-18 16:14:00,
2013-04-18 11:16:00,78.0,63.5,29.58,SSE,159,0.0,10.0,61,0.00,,,0.00,Wunderground v.1.15,2013-04-18 16:16:00,
2013-04-18 11:18:00,78.1,63.6,29.58,South,178,11.0,12.0,61,0.00,,,0.00,Wunderground v.1.15,2013-04-18 16:18:00,
2013-04-18 11:20:00,78.2,63.6,29.58,South,169,7.0,12.0,61,0.00,,,0.00,Wunderground v.1.15,2013-04-18 16:20:00,
2013-04-18 11:21:00,78.2,63.2,29.58,SSE,163,5.0,12.0,60,0.00,,,0.00,Wunderground v.1.15,2013-04-18 16:21:00,
2013-04-18 11:23:00,78.3,62.8,29.58,SE,144,11.0,11.0,59,0.00,,,0.00,Wunderground v.1.15,2013-04-18 16:23:00,
2013-04-18 11:24:00,78.4,63.4,29.58,SSE,165,7.0,14.0,60,0.00,,,0.00,Wunderground v.1.15,2013-04-18 16:24:00,
2013-04-18 11:25:00,78.4,63.4,29.58,South,178,4.0,14.0,60,0.00,,,0.00,Wunderground v.1.15,2013-04-18 16:25:00,
2013-04-18 11:26:00,78.4,62.9,29.58,SE,137,14.0,14.0,59,0.00,,,0.00,Wunderground v.1.15,2013-04-18 16:26:00,
2013-04-18 11:27:00,78.4,62.9,29.58,SW,215,0.0,14.0,59,0.00,,,0.00,Wunderground v.1.15,2013-04-18 16:27:00,
2013-04-18 11:28:00,78.3,62.8,29.58,SW,215,10.0,14.0,59,0.00,,,0.00,Wunderground v.1.15,2013-04-18 16:28:00,
2013-04-18 11:29:00,78.3,62.3,29.58,SSW,196,8.0,14.0,58,0.00,,,0.00,Wunderground v.1.15,2013-04-18 16:29:00,
2013-04-18 11:30:00,78.2,62.2,29.58,South,186,3.0,14.0,58,0.00,,,0.00,Wunderground v.1.15,2013-04-18 16:30:00,
2013-04-18 11:32:00,78.1,62.6,29.58,South,185,5.0,14.0,59,0.00,,,0.00,Wunderground v.1.15,2013-04-18 16:32:00,
2013-04-18 11:33:00,78.0,63.0,29.58,SSE,167,10.0,10.0,60,0.00,,,0.00,Wunderground v.1.15,2013-04-18 16:33:00,
2013-04-18 11:34:00,78.0,62.5,29.58,SSE,153,12.0,14.0,59,0.00,,,0.00,Wunderground v.1.15,2013-04-18 16:34:00,
2013-04-18 11:35:00,77.9,62.4,29.58,SSW,202,7.0,14.0,59,0.00,,,0.00,Wunderground v.1.15,2013-04-18 16:35:00,
2013-04-18 11:37:00,77.9,62.4,29.58,SSW,195,7.0,14.0,59,0.00,,,0.00,Wunderground v.1.15,2013-04-18 16:37:00,
2013-04-18 11:38:00,77.9,62.4,29.58,SSE,166,4.0,14.0,59,0.00,,,0.00,Wunderground v.1.15,2013-04-18 16:38:00,
2013-04-18 11:39:00,77.9,62.9,29.58,SSW,203,7.0,14.0,60,0.00,,,0.00,Wunderground v.1.15,2013-04-18 16:39:00,
2013-04-18 11:40:00,77.9,62.9,29.58,South,171,4.0,14.0,60,0.00,,,0.00,Wunderground v.1.15,2013-04-18 16:40:00,
2013-04-18 11:42:00,77.9,62.9,29.58,SSW,212,5.0,14.0,60,0.00,,,0.00,Wunderground v.1.15,2013-04-18 16:42:00,
2013-04-18 11:44:00,78.0,63.0,29.58,SSE,157,14.0,14.0,60,0.00,,,0.00,Wunderground v.1.15,2013-04-18 16:44:00,
2013-04-18 11:45:00,78.0,63.0,29.58,South,179,5.0,14.0,60,0.00,,,0.00,Wunderground v.1.15,2013-04-18 16:45:00,
2013-04-18 11:46:00,78.0,63.0,29.57,South,188,9.0,14.0,60,0.00,,,0.00,Wunderground v.1.15,2013-04-18 16:46:00,
2013-04-18 11:47:00,78.0,62.5,29.58,SSE,162,7.0,14.0,59,0.00,,,0.00,Wunderground v.1.15,2013-04-18 16:47:00,
2013-04-18 11:48:00,78.0,63.0,29.58,SSE,167,8.0,14.0,60,0.00,,,0.00,Wunderground v.1.15,2013-04-18 16:48:00,
2013-04-18 11:49:00,78.0,62.5,29.58,SSW,196,7.0,14.0,59,0.00,,,0.00,Wunderground v.1.15,2013-04-18 16:49:00,
2013-04-18 11:50:00,78.1,63.1,29.58,South,178,4.0,14.0,60,0.00,,,0.00,Wunderground v.1.15,2013-04-18 16:50:00,
2013-04-18 11:51:00,78.1,63.1,29.58,South,188,3.0,14.0,60,0.00,,,0.00,Wunderground v.1.15,2013-04-18 16:51:00,
2013-04-18 11:53:00,78.2,63.6,29.58,SE,145,8.0,8.0,61,0.00,,,0.00,Wunderground v.1.15,2013-04-18 16:53:00,
2013-04-18 11:55:00,78.2,63.2,29.58,South,184,14.0,14.0,60,0.00,,,0.00,Wunderground v.1.15,2013-04-18 16:55:00,
2013-04-18 11:56:00,78.2,63.2,29.57,SSW,192,6.0,14.0,60,0.00,,,0.00,Wunderground v.1.15,2013-04-18 16:56:00,
2013-04-18 11:58:00,78.0,63.0,29.57,South,172,4.0,14.0,60,0.00,,,0.00,Wunderground v.1.15,2013-04-18 16:58:00,
2013-04-18 12:00:00,78.0,63.5,29.57,South,170,6.0,14.0,61,0.00,,,0.00,Wunderground v.1.15,2013-04-18 17:00:00,
2013-04-18 12:01:00,78.0,63.0,29.57,South,175,4.0,14.0,60,0.00,,,0.00,Wunderground v.1.15,2013-04-18 17:01:00,
2013-04-18 12:04:00,78.0,63.9,29.58,SE,137,0.0,6.0,62,0.00,,,0.00,Wunderground v.1.15,2013-04-18 17:04:00,
2013-04-18 12:05:00,78.0,63.5,29.58,South,172,0.0,10.0,61,0.00,,,0.00,Wunderground v.1.15,2013-04-18 17:05:00,
2013-04-18 12:06:00,78.0,63.9,29.58,SSW,193,0.0,10.0,62,0.00,,,0.00,Wunderground v.1.15,2013-04-18 17:06:00,
2013-04-18 12:07:00,78.0,63.9,29.58,South,183,6.0,10.0,62,0.00,,,0.00,Wunderground v.1.15,2013-04-18 17:07:00,
2013-04-18 12:09:00,78.0,63.5,29.58,SSE,157,0.0,10.0,61,0.00,,,0.00,Wunderground v.1.15,2013-04-18 17:09:00,
2013-04-18 12:10:00,78.0,63.5,29.58,SSE,155,5.0,10.0,61,0.00,,,0.00,Wunderground v.1.15,2013-04-18 17:10:00,
2013-04-18 12:12:00,78.0,63.5,29.58,SSE,155,10.0,10.0,61,0.00,,,0.00,Wunderground v.1.15,2013-04-18 17:12:00,
2013-04-18 12:16:00,77.8,63.3,29.57,SSE,157,7.0,11.0,61,0.00,,,0.00,Wunderground v.1.15,2013-04-18 17:16:00,
2013-04-18 12:17:00,77.8,63.7,29.57,NNE,29,0.0,11.0,62,0.00,,,0.00,Wunderground v.1.15,2013-04-18 17:17:00,
2013-04-18 12:18:00,77.8,63.7,29.57,SSE,155,0.0,11.0,62,0.00,,,0.00,Wunderground v.1.15,2013-04-18 17:18:00,
2013-04-18 12:21:00,78.0,63.9,29.57,SSE,159,5.0,13.0,62,0.00,,,0.00,Wunderground v.1.15,2013-04-18 17:21:00,
2013-04-18 12:23:00,78.4,64.8,29.56,ESE,113,0.0,6.0,63,0.00,,,0.00,Wunderground v.1.15,2013-04-18 17:23:00,
2013-04-18 12:27:00,78.7,63.6,29.57,SSW,207,6.0,12.0,60,0.00,,,0.00,Wunderground v.1.15,2013-04-18 17:27:00,
2013-04-18 12:28:00,78.7,64.1,29.57,SSE,155,9.0,12.0,61,0.00,,,0.00,Wunderground v.1.15,2013-04-18 17:28:00,
2013-04-18 12:29:00,78.7,64.1,29.57,SSE,157,7.0,15.0,61,0.00,,,0.00,Wunderground v.1.15,2013-04-18 17:29:00,
2013-04-18 12:32:00,78.5,63.9,29.57,SSE,153,9.0,17.0,61,0.00,,,0.00,Wunderground v.1.15,2013-04-18 17:32:00,
2013-04-18 12:33:00,78.4,63.8,29.57,SSE,159,8.0,11.0,61,0.00,,,0.00,Wunderground v.1.15,2013-04-18 17:33:00,
2013-04-18 12:34:00,78.3,64.2,29.57,SE,146,13.0,15.0,62,0.00,,,0.00,Wunderground v.1.15,2013-04-18 17:34:00,
2013-04-18 12:37:00,77.8,63.7,29.57,SSE,155,3.0,15.0,62,0.00,,,0.00,Wunderground v.1.15,2013-04-18 17:37:00,
2013-04-18 12:39:00,77.7,64.1,29.57,South,182,4.0,15.0,63,0.00,,,0.00,Wunderground v.1.15,2013-04-18 17:39:00,
2013-04-18 12:40:00,77.6,64.0,29.57,SSW,195,3.0,15.0,63,0.00,,,0.00,Wunderground v.1.15,2013-04-18 17:40:00,
2013-04-18 12:43:00,77.3,63.7,29.56,SSE,167,0.0,6.0,63,0.00,,,0.00,Wunderground v.1.15,2013-04-18 17:43:00,
2013-04-18 12:44:00,77.1,64.0,29.56,ESE,113,10.0,13.0,64,0.00,,,0.00,Wunderground v.1.15,2013-04-18 17:44:00,
2013-04-18 12:45:00,77.1,64.4,29.56,SSE,166,8.0,13.0,65,0.00,,,0.00,Wunderground v.1.15,2013-04-18 17:45:00,
2013-04-18 12:48:00,76.8,64.1,29.56,South,173,10.0,21.0,65,0.00,,,0.00,Wunderground v.1.15,2013-04-18 17:48:00,
2013-04-18 12:50:00,76.7,64.0,29.55,SSE,159,13.0,21.0,65,0.00,,,0.00,Wunderground v.1.15,2013-04-18 17:50:00,
2013-04-18 12:53:00,76.6,64.4,29.55,South,175,12.0,12.0,66,0.00,,,0.00,Wunderground v.1.15,2013-04-18 17:53:00,
2013-04-18 12:54:00,76.5,64.3,29.55,SSE,167,5.0,12.0,66,0.00,,,0.00,Wunderground v.1.15,2013-04-18 17:54:00,
2013-04-18 12:55:00,76.5,64.7,29.55,South,184,0.0,12.0,67,0.00,,,0.00,Wunderground v.1.15,2013-04-18 17:55:00,
2013-04-18 12:56:00,76.5,64.7,29.55,SSE,148,5.0,12.0,67,0.00,,,0.00,Wunderground v.1.15,2013-04-18 17:56:00,
2013-04-18 12:58:00,76.4,64.6,29.55,South,184,6.0,12.0,67,0.00,,,0.00,Wunderground v.1.15,2013-04-18 17:58:00,
2013-04-18 12:59:00,76.4,64.6,29.55,SE,144,9.0,15.0,67,0.00,,,0.00,Wunderground v.1.15,2013-04-18 17:59:00,
2013-04-18 13:00:00,76.3,65.0,29.55,SSW,195,8.0,15.0,68,0.00,,,0.00,Wunderground v.1.15,2013-04-18 18:00:00,
2013-04-18 13:01:00,76.3,65.0,29.55,South,169,5.0,15.0,68,0.00,,,0.00,Wunderground v.1.15,2013-04-18 18:01:00,
2013-04-18 13:03:00,76.2,64.4,29.55,SSE,157,9.0,9.0,67,0.00,,,0.00,Wunderground v.1.15,2013-04-18 18:03:00,
2013-04-18 13:04:00,76.2,64.9,29.55,SE,146,22.0,22.0,68,0.00,,,0.00,Wunderground v.1.15,2013-04-18 18:04:00,
2013-04-18 13:06:00,76.2,64.9,29.55,SSE,168,3.0,22.0,68,0.00,,,0.00,Wunderground v.1.15,2013-04-18 18:06:00,
2013-04-18 13:07:00,76.2,64.9,29.55,SSE,153,7.0,22.0,68,0.00,,,0.00,Wunderground v.1.15,2013-04-18 18:07:00,
2013-04-18 13:08:00,76.1,64.8,29.55,South,169,3.0,22.0,68,0.00,,,0.00,Wunderground v.1.15,2013-04-18 18:08:00,
2013-04-18 13:10:00,76.2,65.3,29.55,South,169,8.0,22.0,69,0.00,,,0.00,Wunderground v.1.15,2013-04-18 18:10:00,
2013-04-18 13:11:00,76.2,65.3,29.55,South,185,4.0,22.0,69,0.00,,,0.00,Wunderground v.1.15,2013-04-18 18:11:00,
2013-04-18 13:12:00,76.2,65.3,29.54,South,185,9.0,22.0,69,0.00,,,0.00,Wunderground v.1.15,2013-04-18 18:12:00,
2013-04-18 13:14:00,76.2,65.3,29.54,South,169,4.0,9.0,69,0.00,,,0.00,Wunderground v.1.15,2013-04-18 18:14:00,
2013-04-18 13:17:00,76.3,65.4,29.54,South,186,6.0,10.0,69,0.00,,,0.00,Wunderground v.1.15,2013-04-18 18:17:00,
2013-04-18 13:18:00,76.3,65.4,29.54,SSW,194,6.0,10.0,69,0.00,,,0.00,Wunderground v.1.15,2013-04-18 18:18:00,
2013-04-18 13:19:00,76.3,65.4,29.54,South,171,8.0,17.0,69,0.00,,,0.00,Wunderground v.1.15,2013-04-18 18:19:00,
2013-04-18 13:22:00,76.4,65.5,29.54,SSE,163,10.0,17.0,69,0.00,,,0.00,Wunderground v.1.15,2013-04-18 18:22:00,
2013-04-18 13:23:00,76.4,65.5,29.54,SSE,162,8.0,8.0,69,0.00,,,0.00,Wunderground v.1.15,2013-04-18 18:23:00,
2013-04-18 13:26:00,76.5,65.6,29.54,South,169,6.0,10.0,69,0.00,,,0.00,Wunderground v.1.15,2013-04-18 18:26:00,
2013-04-18 13:27:00,76.5,65.6,29.54,SE,125,0.0,10.0,69,0.00,,,0.00,Wunderground v.1.15,2013-04-18 18:27:00,
2013-04-18 13:28:00,76.5,65.6,29.53,SE,125,0.0,10.0,69,0.00,,,0.00,Wunderground v.1.15,2013-04-18 18:28:00,
2013-04-18 13:29:00,76.6,65.7,29.53,SSE,167,4.0,10.0,69,0.00,,,0.00,Wunderground v.1.15,2013-04-18 18:29:00,
2013-04-18 13:32:00,76.6,65.7,29.53,South,170,4.0,12.0,69,0.00,,,0.00,Wunderground v.1.15,2013-04-18 18:32:00,
2013-04-18 13:33:00,76.6,65.7,29.53,SSW,194,8.0,12.0,69,0.00,,,0.00,Wunderground v.1.15,2013-04-18 18:33:00,
2013-04-18 13:34:00,76.6,65.7,29.53,SSW,198,3.0,12.0,69,0.00,,,0.00,Wunderground v.1.15,2013-04-18 18:34:00,
2013-04-18 13:37:00,76.6,65.7,29.53,SSE,168,5.0,18.0,69,0.00,,,0.00,Wunderground v.1.15,2013-04-18 18:37:00,
2013-04-18 13:38:00,76.6,65.7,29.53,South,176,3.0,18.0,69,0.00,,,0.00,Wunderground v.1.15,2013-04-18 18:38:00,
2013-04-18 13:39:00,76.6,65.7,29.53,SSE,162,10.0,18.0,69,0.00,,,0.00,Wunderground v.1.15,2013-04-18 18:39:00,
2013-04-18 13:42:00,76.6,65.7,29.53,South,175,6.0,18.0,69,0.00,,,0.00,Wunderground v.1.15,2013-04-18 18:42:00,
2013-04-18 13:43:00,76.5,65.6,29.52,South,182,9.0,19.0,69,0.00,,,0.00,Wunderground v.1.15,2013-04-18 18:43:00,
2013-04-18 13:44:00,76.6,65.7,29.52,South,188,6.0,19.0,69,0.00,,,0.00,Wunderground v.1.15,2013-04-18 18:44:00,
2013-04-18 13:45:00,76.5,65.6,29.52,South,189,7.0,19.0,69,0.00,,,0.00,Wunderground v.1.15,2013-04-18 18:45:00,
2013-04-18 13:48:00,76.6,65.7,29.52,South,173,9.0,19.0,69,0.00,,,0.00,Wunderground v.1.15,2013-04-18 18:48:00,
2013-04-18 13:49:00,76.6,65.7,29.52,South,189,7.0,19.0,69,0.00,,,0.00,Wunderground v.1.15,2013-04-18 18:49:00,
2013-04-18 13:50:00,76.6,65.7,29.52,SSW,208,5.0,19.0,69,0.00,,,0.00,Wunderground v.1.15,2013-04-18 18:50:00,
2013-04-18 13:52:00,76.8,65.9,29.52,South,173,7.0,19.0,69,0.00,,,0.00,Wunderground v.1.15,2013-04-18 18:52:00,
2013-04-18 13:54:00,76.8,65.9,29.51,South,169,8.0,11.0,69,0.00,,,0.00,Wunderground v.1.15,2013-04-18 18:54:00,
2013-04-18 13:55:00,76.9,66.0,29.51,SSW,204,9.0,11.0,69,0.00,,,0.00,Wunderground v.1.15,2013-04-18 18:55:00,
2013-04-18 13:57:00,77.0,66.0,29.51,SSE,160,7.0,14.0,69,0.00,,,0.00,Wunderground v.1.15,2013-04-18 18:57:00,
2013-04-18 13:59:00,77.1,65.7,29.51,South,173,5.0,14.0,68,0.00,,,0.00,Wunderground v.1.15,2013-04-18 18:59:00,
2013-04-18 14:00:00,77.2,66.2,29.51,SSW,203,10.0,14.0,69,0.00,,,0.00,Wunderground v.1.15,2013-04-18 19:00:00,
2013-04-18 14:03:00,77.3,65.9,29.51,SSW,194,6.0,8.0,68,0.00,,,0.00,Wunderground v.1.15,2013-04-18 19:03:00,
2013-04-18 14:05:00,77.3,66.3,29.51,SSE,168,6.0,8.0,69,0.00,,,0.00,Wunderground v.1.15,2013-04-18 19:05:00,
2013-04-18 14:09:00,77.5,66.1,29.50,SE,140,7.0,12.0,68,0.00,,,0.00,Wunderground v.1.15,2013-04-18 19:09:00,
2013-04-18 14:10:00,77.6,65.8,29.50,South,180,9.0,12.0,67,0.00,,,0.00,Wunderground v.1.15,2013-04-18 19:10:00,
2013-04-18 14:11:00,77.6,65.8,29.50,SSE,165,5.0,12.0,67,0.00,,,0.00,Wunderground v.1.15,2013-04-18 19:11:00,
2013-04-18 14:14:00,77.7,65.9,29.50,SSW,199,7.0,14.0,67,0.00,,,0.00,Wunderground v.1.15,2013-04-18 19:14:00,
2013-04-18 14:15:00,77.7,65.9,29.50,South,183,8.0,14.0,67,0.00,,,0.00,Wunderground v.1.15,2013-04-18 19:15:00,
2013-04-18 14:16:00,77.7,65.9,29.50,SSE,161,13.0,14.0,67,0.00,,,0.00,Wunderground v.1.15,2013-04-18 19:16:00,
2013-04-18 14:17:00,77.8,66.0,29.50,SSW,192,8.0,16.0,67,0.00,,,0.00,Wunderground v.1.15,2013-04-18 19:17:00,
2013-04-18 14:20:00,77.8,65.5,29.50,South,169,9.0,16.0,66,0.00,,,0.00,Wunderground v.1.15,2013-04-18 19:20:00,
2013-04-18 14:21:00,77.8,65.5,29.50,SSW,204,8.0,16.0,66,0.00,,,0.00,Wunderground v.1.15,2013-04-18 19:21:00,
2013-04-18 14:22:00,77.8,65.5,29.50,South,169,4.0,16.0,66,0.00,,,0.00,Wunderground v.1.15,2013-04-18 19:22:00,
2013-04-18 14:26:00,77.8,65.5,29.50,SSE,156,5.0,13.0,66,0.00,,,0.00,Wunderground v.1.15,2013-04-18 19:26:00,
2013-04-18 14:27:00,77.8,66.0,29.50,South,186,8.0,13.0,67,0.00,,,0.00,Wunderground v.1.15,2013-04-18 19:27:00,
2013-04-18 14:32:00,77.7,65.9,29.49,South,171,8.0,13.0,67,0.00,,,0.00,Wunderground v.1.15,2013-04-18 19:32:00,
2013-04-18 14:33:00,77.7,65.9,29.49,South,182,6.0,18.0,67,0.00,,,0.00,Wunderground v.1.15,2013-04-18 19:33:00,
2013-04-18 14:37:00,77.8,65.5,29.48,South,182,4.0,18.0,66,0.00,,,0.00,Wunderground v.1.15,2013-04-18 19:37:00,
2013-04-18 14:38:00,77.8,65.5,29.48,SSW,198,11.0,18.0,66,0.00,,,0.00,Wunderground v.1.15,2013-04-18 19:38:00,
2013-04-18 14:39:00,77.8,65.5,29.48,South,176,9.0,18.0,66,0.00,,,0.00,Wunderground v.1.15,2013-04-18 19:39:00,
2013-04-18 14:40:00,77.8,65.5,29.48,South,190,11.0,18.0,66,0.00,,,0.00,Wunderground v.1.15,2013-04-18 19:40:00,
2013-04-18 14:43:00,77.9,65.2,29.48,SSE,159,10.0,10.0,65,0.00,,,0.00,Wunderground v.1.15,2013-04-18 19:43:00,
2013-04-18 14:44:00,77.8,65.5,29.48,South,173,5.0,11.0,66,0.00,,,0.00,Wunderground v.1.15,2013-04-18 19:44:00,
2013-04-18 14:45:00,77.9,65.2,29.47,South,190,9.0,12.0,65,0.00,,,0.00,Wunderground v.1.15,2013-04-18 19:45:00,
2013-04-18 14:46:00,77.9,65.2,29.47,South,184,5.0,12.0,65,0.00,,,0.00,Wunderground v.1.15,2013-04-18 19:46:00,
2013-04-18 14:48:00,77.9,65.2,29.47,SSE,167,8.0,13.0,65,0.00,,,0.00,Wunderground v.1.15,2013-04-18 19:48:00,
2013-04-18 14:49:00,78.0,65.7,29.47,SSE,168,10.0,13.0,66,0.00,,,0.00,Wunderground v.1.15,2013-04-18 19:49:00,
2013-04-18 14:51:00,78.1,65.4,29.46,South,184,10.0,16.0,65,0.00,,,0.00,Wunderground v.1.15,2013-04-18 19:51:00,
2013-04-18 14:53:00,78.3,65.6,29.46,SE,141,7.0,11.0,65,0.00,,,0.00,Wunderground v.1.15,2013-04-18 19:53:00,
2013-04-18 14:55:00,78.4,65.2,29.46,SSE,147,13.0,16.0,64,0.00,,,0.00,Wunderground v.1.15,2013-04-18 19:55:00,
2013-04-18 14:56:00,78.4,65.2,29.45,SSW,199,11.0,17.0,64,0.00,,,0.00,Wunderground v.1.15,2013-04-18 19:56:00,
2013-04-18 14:59:00,78.6,64.9,29.46,SSW,207,9.0,17.0,63,0.00,,,0.00,Wunderground v.1.15,2013-04-18 19:59:00,
2013-04-18 15:00:00,78.7,65.0,29.46,SSE,161,10.0,17.0,63,0.00,,,0.00,Wunderground v.1.15,2013-04-18 20:00:00,
2013-04-18 15:01:00,78.7,65.0,29.46,South,172,8.0,17.0,63,0.00,,,0.00,Wunderground v.1.15,2013-04-18 20:01:00,
2013-04-18 15:04:00,78.7,65.0,29.46,South,169,10.0,14.0,63,0.00,,,0.00,Wunderground v.1.15,2013-04-18 20:04:00,
2013-04-18 15:05:00,78.7,65.0,29.45,SSE,148,11.0,16.0,63,0.00,,,0.00,Wunderground v.1.15,2013-04-18 20:05:00,
2013-04-18 15:06:00,78.7,65.0,29.45,South,186,7.0,16.0,63,0.00,,,0.00,Wunderground v.1.15,2013-04-18 20:06:00,
2013-04-18 15:07:00,78.7,64.6,29.45,South,187,9.0,16.0,62,0.00,,,0.00,Wunderground v.1.15,2013-04-18 20:07:00,
2013-04-18 15:09:00,78.7,65.0,29.45,SSW,195,7.0,16.0,63,0.00,,,0.00,Wunderground v.1.15,2013-04-18 20:09:00,
2013-04-18 15:10:00,78.7,65.0,29.45,South,178,11.0,16.0,63,0.00,,,0.00,Wunderground v.1.15,2013-04-18 20:10:00,
2013-04-18 15:12:00,78.7,65.0,29.45,South,173,12.0,16.0,63,0.00,,,0.00,Wunderground v.1.15,2013-04-18 20:12:00,
2013-04-18 15:14:00,78.7,64.6,29.45,South,172,7.0,15.0,62,0.00,,,0.00,Wunderground v.1.15,2013-04-18 20:14:00,
2013-04-18 15:16:00,78.7,64.6,29.44,SSE,159,9.0,15.0,62,0.00,,,0.00,Wunderground v.1.15,2013-04-18 20:16:00,
2013-04-18 15:17:00,78.7,64.6,29.44,SSE,156,5.0,18.0,62,0.00,,,0.00,Wunderground v.1.15,2013-04-18 20:17:00,
2013-04-18 15:19:00,78.7,64.6,29.44,South,183,5.0,18.0,62,0.00,,,0.00,Wunderground v.1.15,2013-04-18 20:19:00,
2013-04-18 15:20:00,78.7,65.0,29.44,South,170,13.0,18.0,63,0.00,,,0.00,Wunderground v.1.15,2013-04-18 20:20:00,
2013-04-18 15:21:00,78.7,65.0,29.44,SSE,167,13.0,22.0,63,0.00,,,0.00,Wunderground v.1.15,2013-04-18 20:21:00,
2013-04-18 15:22:00,78.6,64.5,29.44,SSW,202,10.0,22.0,62,0.00,,,0.00,Wunderground v.1.15,2013-04-18 20:22:00,
2013-04-18 15:25:00,78.5,64.4,29.44,South,174,8.0,14.0,62,0.00,,,0.00,Wunderground v.1.15,2013-04-18 20:25:00,
2013-04-18 15:26:00,78.5,64.9,29.44,SSW,192,8.0,14.0,63,0.00,,,0.00,Wunderground v.1.15,2013-04-18 20:26:00,
2013-04-18 15:27:00,78.5,64.9,29.44,SSE,148,7.0,14.0,63,0.00,,,0.00,Wunderground v.1.15,2013-04-18 20:27:00,
2013-04-18 15:28:00,78.5,64.9,29.44,SSE,161,5.0,14.0,63,0.00,,,0.00,Wunderground v.1.15,2013-04-18 20:28:00,
2013-04-18 15:30:00,78.4,64.8,29.44,South,172,12.0,14.0,63,0.00,,,0.00,Wunderground v.1.15,2013-04-18 20:30:00,
2013-04-18 15:31:00,78.4,64.8,29.44,SSW,199,13.0,14.0,63,0.00,,,0.00,Wunderground v.1.15,2013-04-18 20:31:00,
2013-04-18 15:33:00,78.4,64.8,29.44,SSE,157,8.0,16.0,63,0.00,,,0.00,Wunderground v.1.15,2013-04-18 20:33:00,
2013-04-18 15:34:00,78.4,64.8,29.44,South,190,14.0,16.0,63,0.00,,,0.00,Wunderground v.1.15,2013-04-18 20:34:00,
2013-04-18 15:35:00,78.3,64.7,29.44,SSE,167,8.0,16.0,63,0.00,,,0.00,Wunderground v.1.15,2013-04-18 20:35:00,
2013-04-18 15:37:00,78.3,64.7,29.44,SSW,205,6.0,16.0,63,0.00,,,0.00,Wunderground v.1.15,2013-04-18 20:37:00,
2013-04-18 15:39:00,78.3,64.7,29.43,SSW,194,8.0,16.0,63,0.00,,,0.00,Wunderground v.1.15,2013-04-18 20:39:00,
2013-04-18 15:40:00,78.3,64.7,29.43,SSE,160,7.0,16.0,63,0.00,,,0.00,Wunderground v.1.15,2013-04-18 20:40:00,
2013-04-18 15:42:00,78.3,64.7,29.44,South,184,9.0,16.0,63,0.00,,,0.00,Wunderground v.1.15,2013-04-18 20:42:00,
2013-04-18 15:43:00,78.3,64.7,29.43,South,171,8.0,9.0,63,0.00,,,0.00,Wunderground v.1.15,2013-04-18 20:43:00,
2013-04-18 15:44:00,78.3,64.7,29.43,SSE,164,8.0,12.0,63,0.00,,,0.00,Wunderground v.1.15,2013-04-18 20:44:00,
2013-04-18 15:45:00,78.3,65.1,29.43,South,178,15.0,18.0,64,0.00,,,0.00,Wunderground v.1.15,2013-04-18 20:45:00,
2013-04-18 15:46:00,78.3,64.7,29.43,South,173,13.0,18.0,63,0.00,,,0.00,Wunderground v.1.15,2013-04-18 20:46:00,
2013-04-18 15:47:00,78.3,64.7,29.43,South,175,5.0,18.0,63,0.00,,,0.00,Wunderground v.1.15,2013-04-18 20:47:00,
2013-04-18 15:48:00,78.3,64.7,29.43,South,186,9.0,18.0,63,0.00,,,0.00,Wunderground v.1.15,2013-04-18 20:48:00,
2013-04-18 15:49:00,78.4,64.8,29.43,SSW,207,7.0,18.0,63,0.00,,,0.00,Wunderground v.1.15,2013-04-18 20:49:00,
2013-04-18 15:50:00,78.3,65.1,29.43,SSE,165,6.0,18.0,64,0.00,,,0.00,Wunderground v.1.15,2013-04-18 20:50:00,
2013-04-18 15:51:00,78.3,65.1,29.43,South,175,6.0,18.0,64,0.00,,,0.00,Wunderground v.1.15,2013-04-18 20:51:00,
2013-04-18 15:52:00,78.4,65.2,29.43,SSW,195,6.0,18.0,64,0.00,,,0.00,Wunderground v.1.15,2013-04-18 20:52:00,
2013-04-18 15:53:00,78.4,64.8,29.42,South,188,6.0,10.0,63,0.00,,,0.00,Wunderground v.1.15,2013-04-18 20:53:00,
2013-04-18 15:54:00,78.4,64.8,29.42,South,182,6.0,10.0,63,0.00,,,0.00,Wunderground v.1.15,2013-04-18 20:54:00,
2013-04-18 15:56:00,78.4,65.2,29.42,South,173,4.0,10.0,64,0.00,,,0.00,Wunderground v.1.15,2013-04-18 20:56:00,
2013-04-18 15:57:00,78.4,65.2,29.42,South,175,3.0,10.0,64,0.00,,,0.00,Wunderground v.1.15,2013-04-18 20:57:00,
2013-04-18 15:59:00,78.4,64.8,29.42,South,182,6.0,10.0,63,0.00,,,0.00,Wunderground v.1.15,2013-04-18 20:59:00,
2013-04-18 16:00:00,78.4,65.2,29.42,South,187,5.0,10.0,64,0.00,,,0.00,Wunderground v.1.15,2013-04-18 21:00:00,
2013-04-18 16:02:00,78.4,64.8,29.41,South,175,6.0,10.0,63,0.00,,,0.00,Wunderground v.1.15,2013-04-18 21:02:00,
2013-04-18 16:04:00,78.3,64.7,29.41,SSW,195,8.0,10.0,63,0.00,,,0.00,Wunderground v.1.15,2013-04-18 21:04:00,
2013-04-18 16:06:00,78.3,64.7,29.42,SSE,156,10.0,10.0,63,0.00,,,0.00,Wunderground v.1.15,2013-04-18 21:06:00,
2013-04-18 16:07:00,78.3,64.7,29.41,South,190,8.0,11.0,63,0.00,,,0.00,Wunderground v.1.15,2013-04-18 21:07:00,
2013-04-18 16:10:00,78.3,64.7,29.41,South,182,7.0,14.0,63,0.00,,,0.00,Wunderground v.1.15,2013-04-18 21:10:00,
2013-04-18 16:11:00,78.3,64.7,29.41,SSE,163,9.0,14.0,63,0.00,,,0.00,Wunderground v.1.15,2013-04-18 21:11:00,
2013-04-18 16:12:00,78.3,64.7,29.41,SSW,213,14.0,14.0,63,0.00,,,0.00,Wunderground v.1.15,2013-04-18 21:12:00,
2013-04-18 16:15:00,78.3,64.7,29.41,South,169,6.0,11.0,63,0.00,,,0.00,Wunderground v.1.15,2013-04-18 21:15:00,
2013-04-18 16:17:00,78.4,64.8,29.41,South,171,7.0,11.0,63,0.00,,,0.00,Wunderground v.1.15,2013-04-18 21:17:00,
2013-04-18 16:18:00,78.3,64.7,29.41,SSE,164,14.0,14.0,63,0.00,,,0.00,Wunderground v.1.15,2013-04-18 21:18:00,
2013-04-18 16:21:00,78.4,64.8,29.40,SSE,153,6.0,16.0,63,0.00,,,0.00,Wunderground v.1.15,2013-04-18 21:21:00,
2013-04-18 16:22:00,78.4,64.8,29.40,South,190,7.0,16.0,63,0.00,,,0.00,Wunderground v.1.15,2013-04-18 21:22:00,
2013-04-18 16:23:00,78.4,64.8,29.40,SSE,161,0.0,7.0,63,0.00,,,0.00,Wunderground v.1.15,2013-04-18 21:23:00,
2013-04-18 16:24:00,78.4,64.8,29.40,South,174,7.0,11.0,63,0.00,,,0.00,Wunderground v.1.15,2013-04-18 21:24:00,
2013-04-18 16:27:00,78.4,64.8,29.40,South,186,4.0,11.0,63,0.00,,,0.00,Wunderground v.1.15,2013-04-18 21:27:00,
2013-04-18 16:28:00,78.4,64.8,29.40,SSE,163,9.0,15.0,63,0.00,,,0.00,Wunderground v.1.15,2013-04-18 21:28:00,
2013-04-18 16:29:00,78.4,64.8,29.40,South,174,6.0,15.0,63,0.00,,,0.00,Wunderground v.1.15,2013-04-18 21:29:00,
2013-04-18 16:32:00,78.4,65.2,29.40,South,175,5.0,15.0,64,0.00,,,0.00,Wunderground v.1.15,2013-04-18 21:32:00,
2013-04-18 16:34:00,78.4,64.8,29.40,South,189,9.0,9.0,63,0.00,,,0.00,Wunderground v.1.15,2013-04-18 21:34:00,
2013-04-18 16:39:00,78.5,64.9,29.40,South,171,6.0,15.0,63,0.00,,,0.00,Wunderground v.1.15,2013-04-18 21:39:00,
2013-04-18 16:41:00,78.6,64.9,29.40,South,181,1.0,15.0,63,0.00,,,0.00,Wunderground v.1.15,2013-04-18 21:41:00,
2013-04-18 16:44:00,78.7,65.0,29.40,SSW,192,7.0,12.0,63,0.00,,,0.00,Wunderground v.1.15,2013-04-18 21:44:00,
2013-04-18 16:45:00,78.6,64.9,29.40,South,182,1.0,12.0,63,0.00,,,0.00,Wunderground v.1.15,2013-04-18 21:45:00,
2013-04-18 16:46:00,78.6,64.9,29.40,SSW,198,7.0,12.0,63,0.00,,,0.00,Wunderground v.1.15,2013-04-18 21:46:00,
2013-04-18 16:49:00,78.6,64.9,29.40,SSE,167,5.0,12.0,63,0.00,,,0.00,Wunderground v.1.15,2013-04-18 21:49:00,
2013-04-18 16:50:00,78.6,64.9,29.40,South,175,0.0,12.0,63,0.00,,,0.00,Wunderground v.1.15,2013-04-18 21:50:00,
2013-04-18 16:51:00,78.6,64.9,29.40,SSE,159,4.0,12.0,63,0.00,,,0.00,Wunderground v.1.15,2013-04-18 21:51:00,
2013-04-18 16:52:00,78.6,64.9,29.40,SSE,168,3.0,12.0,63,0.00,,,0.00,Wunderground v.1.15,2013-04-18 21:52:00,
2013-04-18 16:54:00,78.7,65.0,29.40,South,190,6.0,12.0,63,0.00,,,0.00,Wunderground v.1.15,2013-04-18 21:54:00,
2013-04-18 16:55:00,78.7,65.0,29.39,South,171,5.0,12.0,63,0.00,,,0.00,Wunderground v.1.15,2013-04-18 21:55:00,
2013-04-18 16:56:00,78.7,65.0,29.39,South,184,5.0,12.0,63,0.00,,,0.00,Wunderground v.1.15,2013-04-18 21:56:00,
2013-04-18 16:57:00,78.7,65.0,29.39,South,169,0.0,12.0,63,0.00,,,0.00,Wunderground v.1.15,2013-04-18 21:57:00,
2013-04-18 17:00:00,78.6,64.9,29.39,SSW,197,2.0,12.0,63,0.00,,,0.00,Wunderground v.1.15,2013-04-18 22:00:00,
2013-04-18 17:02:00,78.6,64.9,29.39,South,182,3.0,12.0,63,0.00,,,0.00,Wunderground v.1.15,2013-04-18 22:02:00,
2013-04-18 17:03:00,78.5,65.3,29.39,South,175,4.0,5.0,64,0.00,,,0.00,Wunderground v.1.15,2013-04-18 22:03:00,
2013-04-18 17:05:00,78.5,64.9,29.39,South,186,5.0,10.0,63,0.00,,,0.00,Wunderground v.1.15,2013-04-18 22:05:00,
2013-04-18 17:07:00,78.5,65.3,29.39,SSW,212,7.0,10.0,64,0.00,,,0.00,Wunderground v.1.15,2013-04-18 22:07:00,
2013-04-18 17:08:00,78.5,65.3,29.39,SSE,160,7.0,10.0,64,0.00,,,0.00,Wunderground v.1.15,2013-04-18 22:08:00,
2013-04-18 17:10:00,78.5,65.3,29.39,South,180,6.0,10.0,64,0.00,,,0.00,Wunderground v.1.15,2013-04-18 22:10:00,
2013-04-18 17:12:00,78.5,65.3,29.39,South,171,0.0,10.0,64,0.00,,,0.00,Wunderground v.1.15,2013-04-18 22:12:00,
2013-04-18 17:13:00,78.5,65.3,29.39,South,179,6.0,6.0,64,0.00,,,0.00,Wunderground v.1.15,2013-04-18 22:13:00,
2013-04-18 17:14:00,78.5,64.9,29.39,SSE,157,3.0,10.0,63,0.00,,,0.00,Wunderground v.1.15,2013-04-18 22:14:00,
2013-04-18 17:16:00,78.5,65.3,29.39,South,179,8.0,11.0,64,0.00,,,0.00,Wunderground v.1.15,2013-04-18 22:16:00,
2013-04-18 17:19:00,78.5,65.3,29.40,SSW,200,6.0,12.0,64,0.00,,,0.00,Wunderground v.1.15,2013-04-18 22:19:00,
2013-04-18 17:20:00,78.5,65.3,29.40,SSE,160,0.0,12.0,64,0.00,,,0.00,Wunderground v.1.15,2013-04-18 22:20:00,
2013-04-18 17:22:00,78.4,65.2,29.41,SSE,167,8.0,12.0,64,0.00,,,0.00,Wunderground v.1.15,2013-04-18 22:22:00,
2013-04-18 17:24:00,78.3,66.4,29.41,South,184,0.0,9.0,67,1.23,,,0.03,Wunderground v.1.15,2013-04-18 22:24:00,
2013-04-18 17:25:00,78.2,66.8,29.40,South,184,0.0,9.0,68,0.48,,,0.03,Wunderground v.1.15,2013-04-18 22:25:00,
2013-04-18 17:28:00,77.1,67.4,29.41,ESE,111,0.0,9.0,72,0.24,,,0.04,Wunderground v.1.15,2013-04-18 22:28:00,
2013-04-18 17:29:00,76.8,66.7,29.40,South,176,0.0,9.0,71,0.17,,,0.04,Wunderground v.1.15,2013-04-18 22:29:00,
2013-04-18 17:30:00,76.6,66.9,29.40,South,177,0.0,9.0,72,0.14,,,0.04,Wunderground v.1.15,2013-04-18 22:30:00,
2013-04-18 17:31:00,76.5,66.8,29.39,South,176,0.0,9.0,72,0.13,,,0.04,Wunderground v.1.15,2013-04-18 22:31:00,
2013-04-18 17:33:00,75.9,67.0,29.40,South,177,0.0,1.0,74,0.08,,,0.04,Wunderground v.1.15,2013-04-18 22:33:00,
2013-04-18 17:35:00,75.6,67.9,29.40,South,177,0.0,1.0,77,0.07,,,0.04,Wunderground v.1.15,2013-04-18 22:35:00,
2013-04-18 17:36:00,75.4,68.1,29.40,South,177,0.0,1.0,78,0.06,,,0.04,Wunderground v.1.15,2013-04-18 22:36:00,
2013-04-18 17:39:00,74.6,67.7,29.40,South,177,0.0,1.0,79,0.05,,,0.05,Wunderground v.1.15,2013-04-18 22:39:00,
2013-04-18 17:40:00,74.4,67.8,29.40,South,177,0.0,1.0,80,0.66,,,0.06,Wunderground v.1.15,2013-04-18 22:40:00,
2013-04-18 17:41:00,74.2,68.0,29.40,South,176,0.0,1.0,81,0.38,,,0.06,Wunderground v.1.15,2013-04-18 22:41:00,
2013-04-18 17:42:00,74.0,67.8,29.41,South,177,0.0,1.0,81,0.20,,,0.06,Wunderground v.1.15,2013-04-18 22:42:00,
2013-04-18 17:44:00,73.6,68.1,29.42,South,176,0.0,0.0,83,0.12,,,0.06,Wunderground v.1.15,2013-04-18 22:44:00,
2013-04-18 17:45:00,73.5,68.0,29.42,South,177,0.0,0.0,83,0.11,,,0.07,Wunderground v.1.15,2013-04-18 22:45:00,
2013-04-18 17:46:00,73.2,67.7,29.41,South,176,0.0,0.0,83,1.38,,,0.08,Wunderground v.1.15,2013-04-18 22:46:00,
2013-04-18 17:47:00,72.9,67.4,29.42,South,176,0.0,2.0,83,0.75,,,0.10,Wunderground v.1.15,2013-04-18 22:47:00,
2013-04-18 17:50:00,72.5,67.7,29.42,South,176,0.0,2.0,85,0.26,,,0.11,Wunderground v.1.15,2013-04-18 22:50:00,
2013-04-18 17:51:00,72.2,67.4,29.42,South,177,0.0,2.0,85,0.47,,,0.12,Wunderground v.1.15,2013-04-18 22:51:00,
2013-04-18 17:53:00,71.9,67.8,29.41,South,176,0.0,0.0,87,0.33,,,0.13,Wunderground v.1.15,2013-04-18 22:53:00,
2013-04-18 17:55:00,71.7,67.6,29.41,South,177,0.0,0.0,87,0.27,,,0.14,Wunderground v.1.15,2013-04-18 22:55:00,
2013-04-18 17:57:00,71.5,67.8,29.41,South,177,0.0,0.0,88,0.27,,,0.14,Wunderground v.1.15,2013-04-18 22:57:00,
2013-04-18 17:59:00,71.2,67.8,29.41,South,176,0.0,0.0,89,0.26,,,0.15,Wunderground v.1.15,2013-04-18 22:59:00,
2013-04-18 18:00:00,71.1,67.7,29.41,South,176,0.0,0.0,89,0.18,,,0.15,Wunderground v.1.15,2013-04-18 23:00:00,
2013-04-18 18:02:00,70.9,67.5,29.40,South,176,0.0,0.0,89,0.16,,,0.16,Wunderground v.1.15,2013-04-18 23:02:00,
2013-04-18 18:04:00,70.7,67.6,29.40,South,169,0.0,0.0,90,0.22,,,0.17,Wunderground v.1.15,2013-04-18 23:04:00,
2013-04-18 18:05:00,70.7,67.6,29.41,South,169,0.0,0.0,90,0.22,,,0.17,Wunderground v.1.15,2013-04-18 23:05:00,
2013-04-18 18:07:00,70.5,67.7,29.40,South,169,0.0,0.0,91,0.15,,,0.17,Wunderground v.1.15,2013-04-18 23:07:00,
2013-04-18 18:08:00,70.5,67.7,29.40,South,169,0.0,0.0,91,0.15,,,0.18,Wunderground v.1.15,2013-04-18 23:08:00,
2013-04-18 18:09:00,70.4,67.6,29.40,South,169,0.0,0.0,91,0.70,,,0.20,Wunderground v.1.15,2013-04-18 23:09:00,
2013-04-18 18:10:00,70.4,67.6,29.40,South,169,0.0,0.0,91,0.58,,,0.20,Wunderground v.1.15,2013-04-18 23:10:00,
2013-04-18 18:11:00,70.3,67.5,29.40,South,169,0.0,0.0,91,0.39,,,0.20,Wunderground v.1.15,2013-04-18 23:11:00,
2013-04-18 18:14:00,70.2,67.4,29.40,South,169,0.0,0.0,91,0.24,,,0.22,Wunderground v.1.15,2013-04-18 23:14:00,
2013-04-18 18:15:00,70.2,67.8,29.40,South,169,0.0,0.0,92,0.24,,,0.22,Wunderground v.1.15,2013-04-18 23:15:00,
2013-04-18 18:16:00,70.1,67.7,29.40,South,169,0.0,0.0,92,0.21,,,0.23,Wunderground v.1.15,2013-04-18 23:16:00,
2013-04-18 18:19:00,70.0,67.6,29.41,South,169,0.0,0.0,92,0.51,,,0.25,Wunderground v.1.15,2013-04-18 23:19:00,
2013-04-18 18:20:00,69.9,67.5,29.41,SSW,201,1.0,5.0,92,2.28,,,0.29,Wunderground v.1.15,2013-04-18 23:20:00,
2013-04-18 18:23:00,69.8,67.4,29.41,SSW,201,0.0,0.0,92,0.37,,,0.31,Wunderground v.1.15,2013-04-18 23:23:00,
2013-04-18 18:24:00,69.7,67.3,29.41,SSW,200,0.0,0.0,92,0.25,,,0.32,Wunderground v.1.15,2013-04-18 23:24:00,
2013-04-18 18:25:00,69.7,67.3,29.41,SSW,202,0.0,0.0,92,0.25,,,0.32,Wunderground v.1.15,2013-04-18 23:25:00,
2013-04-18 18:26:00,69.7,67.3,29.41,SSW,202,0.0,0.0,92,0.25,,,0.32,Wunderground v.1.15,2013-04-18 23:26:00,
2013-04-18 18:29:00,69.5,67.1,29.40,SSW,202,0.0,0.0,92,0.28,,,0.34,Wunderground v.1.15,2013-04-18 23:29:00,
2013-04-18 18:31:00,69.5,67.1,29.40,SSW,201,0.0,0.0,92,0.24,,,0.34,Wunderground v.1.15,2013-04-18 23:31:00,
2013-04-18 18:34:00,69.5,67.4,29.39,SSW,200,0.0,0.0,93,0.13,,,0.35,Wunderground v.1.15,2013-04-18 23:34:00,
2013-04-18 18:35:00,69.5,67.4,29.38,South,186,0.0,0.0,93,0.13,,,0.35,Wunderground v.1.15,2013-04-18 23:35:00,
2013-04-18 18:36:00,69.5,67.4,29.38,South,186,0.0,0.0,93,0.23,,,0.36,Wunderground v.1.15,2013-04-18 23:36:00,
2013-04-18 18:37:00,69.5,67.4,29.38,South,186,0.0,0.0,93,0.69,,,0.37,Wunderground v.1.15,2013-04-18 23:37:00,
2013-04-18 18:39:00,69.4,67.3,29.38,South,186,0.0,0.0,93,0.32,,,0.38,Wunderground v.1.15,2013-04-18 23:39:00,
2013-04-18 18:41:00,69.4,67.3,29.37,South,186,0.0,0.0,93,1.93,,,0.41,Wunderground v.1.15,2013-04-18 23:41:00,
2013-04-18 18:42:00,69.3,67.2,29.38,South,186,0.0,0.0,93,0.96,,,0.43,Wunderground v.1.15,2013-04-18 23:42:00,
2013-04-18 18:44:00,69.3,67.2,29.38,South,186,0.0,0.0,93,0.40,,,0.44,Wunderground v.1.15,2013-04-18 23:44:00,
2013-04-18 18:46:00,69.2,67.1,29.38,South,186,0.0,0.0,93,0.27,,,0.45,Wunderground v.1.15,2013-04-18 23:46:00,
2013-04-18 18:47:00,69.2,67.1,29.38,South,186,0.0,0.0,93,0.27,,,0.45,Wunderground v.1.15,2013-04-18 23:47:00,
2013-04-18 18:50:00,69.1,67.0,29.37,South,186,0.0,0.0,93,0.13,,,0.45,Wunderground v.1.15,2013-04-18 23:50:00,
2013-04-18 18:52:00,69.1,67.0,29.37,South,186,0.0,0.0,93,0.13,,,0.46,Wunderground v.1.15,2013-04-18 23:52:00,
2013-04-18 18:55:00,69.0,66.9,29.37,South,186,0.0,0.0,93,0.47,,,0.49,Wunderground v.1.15,2013-04-18 23:55:00,
2013-04-18 18:57:00,69.0,66.9,29.37,SW,214,0.0,0.0,93,0.19,,,0.49,Wunderground v.1.15,2013-04-18 23:57:00,
2013-04-18 18:58:00,69.0,66.9,29.37,SW,215,0.0,0.0,93,0.16,,,0.49,Wunderground v.1.15,2013-04-18 23:58:00,
2013-04-18 19:00:00,68.9,66.8,29.36,WNW,283,1.0,3.0,93,0.13,,,0.50,Wunderground v.1.15,2013-04-19 00:00:00,
2013-04-18 19:02:00,68.9,66.8,29.38,WNW,283,0.0,3.0,93,0.13,,,0.50,Wunderground v.1.15,2013-04-19 00:02:00,
2013-04-18 19:03:00,68.9,66.8,29.40,WNW,283,0.0,0.0,93,0.13,,,0.50,Wunderground v.1.15,2013-04-19 00:03:00,
2013-04-18 19:06:00,68.9,67.1,29.40,NW,310,0.0,9.0,94,4.30,,,0.66,Wunderground v.1.15,2013-04-19 00:06:00,
2013-04-18 19:08:00,68.8,67.0,29.40,NW,316,0.0,9.0,94,1.06,,,0.71,Wunderground v.1.15,2013-04-19 00:08:00,
2013-04-18 19:09:00,68.8,67.0,29.41,NW,316,6.0,9.0,94,0.81,,,0.72,Wunderground v.1.15,2013-04-19 00:09:00,
2013-04-18 19:11:00,68.5,66.4,29.41,WNW,303,8.0,9.0,93,0.80,,,0.75,Wunderground v.1.15,2013-04-19 00:11:00,
2013-04-18 19:13:00,67.2,64.2,29.41,NW,306,5.0,6.0,90,0.78,,,0.77,Wunderground v.1.15,2013-04-19 00:13:00,
2013-04-18 19:14:00,66.6,63.3,29.41,NW,318,5.0,9.0,89,0.78,,,0.78,Wunderground v.1.15,2013-04-19 00:14:00,
2013-04-18 19:15:00,65.9,62.6,29.41,WNW,298,4.0,13.0,89,0.63,,,0.79,Wunderground v.1.15,2013-04-19 00:15:00,
2013-04-18 19:16:00,65.1,61.8,29.42,WNW,295,4.0,13.0,89,1.98,,,0.83,Wunderground v.1.15,2013-04-19 00:16:00,
2013-04-18 19:18:00,64.1,61.1,29.43,NW,318,5.0,13.0,90,1.94,,,0.89,Wunderground v.1.15,2013-04-19 00:18:00,
2013-04-18 19:19:00,63.7,60.7,29.43,NNW,337,4.0,14.0,90,2.05,,,0.92,Wunderground v.1.15,2013-04-19 00:19:00,
2013-04-18 19:20:00,63.3,60.3,29.43,NW,310,3.0,14.0,90,1.02,,,0.94,Wunderground v.1.15,2013-04-19 00:20:00,
2013-04-18 19:21:00,62.7,60.0,29.44,North,5,9.0,14.0,91,0.94,,,0.97,Wunderground v.1.15,2013-04-19 00:21:00,
2013-04-18 19:23:00,61.8,58.5,29.44,WNW,303,8.0,8.0,89,1.30,,,1.00,Wunderground v.1.15,2013-04-19 00:23:00,
2013-04-18 19:25:00,60.8,57.2,29.44,WNW,300,0.0,16.0,88,0.58,,,1.02,Wunderground v.1.15,2013-04-19 00:25:00,
2013-04-18 19:27:00,59.7,56.5,29.44,NW,311,8.0,16.0,89,0.75,,,1.04,Wunderground v.1.15,2013-04-19 00:27:00,
2013-04-18 19:28:00,59.0,56.1,29.44,NW,321,3.0,16.0,90,1.49,,,1.07,Wunderground v.1.15,2013-04-19 00:28:00,
2013-04-18 19:30:00,58.5,55.6,29.43,NW,304,1.0,16.0,90,1.25,,,1.12,Wunderground v.1.15,2013-04-19 00:30:00,
2013-04-18 19:32:00,58.0,55.4,29.44,NNW,329,5.0,16.0,91,0.95,,,1.15,Wunderground v.1.15,2013-04-19 00:32:00,
2013-04-18 19:33:00,57.5,54.9,29.44,NW,322,4.0,6.0,91,0.69,,,1.17,Wunderground v.1.15,2013-04-19 00:33:00,
2013-04-18 19:36:00,57.1,54.8,29.46,NW,323,5.0,8.0,92,0.29,,,1.19,Wunderground v.1.15,2013-04-19 00:36:00,
2013-04-18 19:37:00,56.8,54.5,29.46,NNE,16,3.0,8.0,92,0.55,,,1.20,Wunderground v.1.15,2013-04-19 00:37:00,
2013-04-18 19:39:00,56.2,53.9,29.45,NNE,15,6.0,9.0,92,0.35,,,1.21,Wunderground v.1.15,2013-04-19 00:39:00,
2013-04-18 19:41:00,55.9,53.6,29.46,WNW,302,3.0,9.0,92,0.72,,,1.23,Wunderground v.1.15,2013-04-19 00:41:00,
2013-04-18 19:42:00,55.6,53.3,29.47,NW,306,2.0,9.0,92,0.65,,,1.24,Wunderground v.1.15,2013-04-19 00:42:00,
2013-04-18 19:45:00,55.1,52.8,29.48,West,265,3.0,4.0,92,0.49,,,1.26,Wunderground v.1.15,2013-04-19 00:45:00,
2013-04-18 19:46:00,54.8,52.5,29.48,NW,317,3.0,6.0,92,0.29,,,1.27,Wunderground v.1.15,2013-04-19 00:46:00,
2013-04-18 19:47:00,54.6,52.3,29.48,NW,304,1.0,7.0,92,0.29,,,1.27,Wunderground v.1.15,2013-04-19 00:47:00,
2013-04-18 19:50:00,54.0,51.7,29.48,NW,309,5.0,10.0,92,0.35,,,1.29,Wunderground v.1.15,2013-04-19 00:50:00,
2013-04-18 19:51:00,53.7,51.4,29.49,West,268,8.0,10.0,92,0.36,,,1.29,Wunderground v.1.15,2013-04-19 00:51:00,
2013-04-18 19:52:00,53.5,51.2,29.49,WNW,302,7.0,13.0,92,0.36,,,1.30,Wunderground v.1.15,2013-04-19 00:52:00,
2013-04-18 19:55:00,52.9,50.6,29.48,WNW,299,5.0,13.0,92,0.40,,,1.32,Wunderground v.1.15,2013-04-19 00:55:00,
2013-04-18 19:56:00,52.7,50.4,29.48,NW,312,3.0,13.0,92,0.30,,,1.32,Wunderground v.1.15,2013-04-19 00:56:00,
2013-04-18 19:57:00,52.6,50.3,29.48,WNW,302,2.0,13.0,92,0.30,,,1.33,Wunderground v.1.15,2013-04-19 00:57:00,
2013-04-18 19:58:00,52.5,50.5,29.48,North,360,9.0,13.0,93,0.32,,,1.33,Wunderground v.1.15,2013-04-19 00:58:00,
2013-04-18 20:01:00,52.2,50.2,29.47,NW,316,0.0,13.0,93,0.42,,,1.35,Wunderground v.1.15,2013-04-19 01:01:00,
2013-04-18 20:02:00,52.2,50.2,29.47,WNW,295,3.0,13.0,93,0.33,,,1.36,Wunderground v.1.15,2013-04-19 01:02:00,
2013-04-18 20:03:00,52.1,50.1,29.47,NW,309,1.0,13.0,93,0.33,,,1.36,Wunderground v.1.15,2013-04-19 01:03:00,
2013-04-18 20:07:00,51.9,49.9,29.48,NNW,335,2.0,8.0,93,0.21,,,1.37,Wunderground v.1.15,2013-04-19 01:07:00,
2013-04-18 20:08:00,51.8,49.8,29.48,WNW,294,2.0,8.0,93,0.15,,,1.37,Wunderground v.1.15,2013-04-19 01:08:00,
2013-04-18 20:12:00,51.7,50.0,29.49,WNW,301,0.0,8.0,94,0.14,,,1.38,Wunderground v.1.15,2013-04-19 01:12:00,
2013-04-18 20:13:00,51.7,50.0,29.49,NW,309,2.0,2.0,94,0.13,,,1.38,Wunderground v.1.15,2013-04-19 01:13:00,
2013-04-18 20:17:00,51.6,49.9,29.48,NW,308,0.0,8.0,94,0.43,,,1.43,Wunderground v.1.15,2013-04-19 01:17:00,
2013-04-18 20:18:00,51.6,49.9,29.50,NW,310,2.0,8.0,94,0.43,,,1.43,Wunderground v.1.15,2013-04-19 01:18:00,
2013-04-18 20:19:00,51.6,49.9,29.50,NW,310,0.0,8.0,94,0.43,,,1.43,Wunderground v.1.15,2013-04-19 01:19:00,
2013-04-18 20:22:00,51.6,49.9,29.49,North,350,6.0,8.0,94,0.18,,,1.45,Wunderground v.1.15,2013-04-19 01:22:00,
2013-04-18 20:24:00,51.5,49.8,29.51,WNW,299,0.0,2.0,94,0.18,,,1.45,Wunderground v.1.15,2013-04-19 01:24:00,
2013-04-18 20:25:00,51.5,49.8,29.52,WNW,298,0.0,2.0,94,0.18,,,1.45,Wunderground v.1.15,2013-04-19 01:25:00,
2013-04-18 20:27:00,51.6,49.9,29.53,NW,308,1.0,4.0,94,0.11,,,1.45,Wunderground v.1.15,2013-04-19 01:27:00,
2013-04-18 20:29:00,51.6,49.9,29.53,WNW,294,2.0,4.0,94,0.60,,,1.47,Wunderground v.1.15,2013-04-19 01:29:00,
2013-04-18 20:30:00,51.6,49.9,29.53,WNW,298,0.0,4.0,94,0.59,,,1.48,Wunderground v.1.15,2013-04-19 01:30:00,
2013-04-18 20:34:00,51.4,49.7,29.52,NNW,341,0.0,6.0,94,0.55,,,1.52,Wunderground v.1.15,2013-04-19 01:34:00,
2013-04-18 20:35:00,51.4,49.7,29.51,WNW,303,2.0,6.0,94,0.43,,,1.53,Wunderground v.1.15,2013-04-19 01:35:00,
2013-04-18 20:36:00,51.4,49.7,29.52,NW,304,2.0,6.0,94,0.43,,,1.53,Wunderground v.1.15,2013-04-19 01:36:00,
2013-04-18 20:39:00,51.1,49.4,29.51,NW,324,4.0,7.0,94,0.35,,,1.54,Wunderground v.1.15,2013-04-19 01:39:00,
2013-04-18 20:40:00,51.1,49.4,29.52,NW,319,2.0,7.0,94,0.35,,,1.55,Wunderground v.1.15,2013-04-19 01:40:00,
2013-04-18 20:41:00,51.0,49.3,29.52,NW,313,4.0,9.0,94,0.58,,,1.56,Wunderground v.1.15,2013-04-19 01:41:00,
2013-04-18 20:45:00,50.8,49.1,29.51,NW,304,3.0,5.0,94,0.18,,,1.57,Wunderground v.1.15,2013-04-19 01:45:00,
2013-04-18 20:46:00,50.7,49.0,29.51,NW,305,1.0,7.0,94,0.36,,,1.58,Wunderground v.1.15,2013-04-19 01:46:00,
2013-04-18 20:47:00,50.6,48.9,29.52,West,279,1.0,7.0,94,0.39,,,1.59,Wunderground v.1.15,2013-04-19 01:47:00,
2013-04-18 20:50:00,50.4,48.7,29.53,NW,315,0.0,7.0,94,0.24,,,1.60,Wunderground v.1.15,2013-04-19 01:50:00,
2013-04-18 20:51:00,50.4,48.7,29.52,NW,315,0.0,7.0,94,0.23,,,1.60,Wunderground v.1.15,2013-04-19 01:51:00,
2013-04-18 20:53:00,50.3,48.6,29.52,NW,314,0.0,2.0,94,0.43,,,1.62,Wunderground v.1.15,2013-04-19 01:53:00,
2013-04-18 20:56:00,50.3,48.6,29.52,West,272,0.0,2.0,94,0.28,,,1.63,Wunderground v.1.15,2013-04-19 01:56:00,
2013-04-18 20:57:00,50.2,48.5,29.52,NW,304,0.0,2.0,94,0.28,,,1.63,Wunderground v.1.15,2013-04-19 01:57:00,
2013-04-18 20:58:00,50.1,48.4,29.52,NW,304,0.0,2.0,94,0.17,,,1.63,Wunderground v.1.15,2013-04-19 01:58:00,
2013-04-18 21:01:00,49.9,48.2,29.52,North,350,0.0,5.0,94,0.32,,,1.65,Wunderground v.1.15,2013-04-19 02:01:00,
2013-04-18 21:02:00,49.9,48.2,29.52,NNW,342,0.0,5.0,94,0.28,,,1.65,Wunderground v.1.15,2013-04-19 02:02:00,
2013-04-18 21:03:00,49.8,48.1,29.52,NNW,329,0.0,0.0,94,0.28,,,1.66,Wunderground v.1.15,2013-04-19 02:03:00,
2013-04-18 21:07:00,49.7,48.0,29.52,NW,315,1.0,4.0,94,0.12,,,1.66,Wunderground v.1.15,2013-04-19 02:07:00,
2013-04-18 21:09:00,49.6,47.9,29.53,NW,315,0.0,4.0,94,0.08,,,1.66,Wunderground v.1.15,2013-04-19 02:09:00,
2013-04-18 21:12:00,49.5,47.8,29.56,WSW,256,0.0,5.0,94,0.06,,,1.66,Wunderground v.1.15,2013-04-19 02:12:00,
2013-04-18 21:14:00,49.5,47.8,29.57,NW,306,1.0,3.0,94,0.05,,,1.66,Wunderground v.1.15,2013-04-19 02:14:00,
2013-04-18 21:17:00,49.6,47.9,29.60,West,259,0.0,4.0,94,0.04,,,1.66,Wunderground v.1.15,2013-04-19 02:17:00,
2013-04-18 21:19:00,49.5,47.8,29.59,WNW,286,1.0,4.0,94,0.00,,,1.66,Wunderground v.1.15,2013-04-19 02:19:00,
2013-04-18 21:22:00,49.3,47.6,29.57,NNE,29,4.0,9.0,94,1.29,,,1.70,Wunderground v.1.15,2013-04-19 02:22:00,
2013-04-18 21:23:00,49.3,47.6,29.56,NW,321,3.0,3.0,94,0.87,,,1.71,Wunderground v.1.15,2013-04-19 02:23:00,
2013-04-18 21:24:00,49.2,47.5,29.56,NNW,338,0.0,4.0,94,0.60,,,1.72,Wunderground v.1.15,2013-04-19 02:24:00,
2013-04-18 21:25:00,49.2,47.5,29.57,NNW,338,0.0,4.0,94,0.65,,,1.74,Wunderground v.1.15,2013-04-19 02:25:00,
2013-04-18 21:27:00,49.0,47.3,29.57,WNW,298,3.0,4.0,94,0.37,,,1.75,Wunderground v.1.15,2013-04-19 02:27:00,
2013-04-18 21:28:00,48.9,47.2,29.57,WNW,293,0.0,4.0,94,0.41,,,1.75,Wunderground v.1.15,2013-04-19 02:28:00,
2013-04-18 21:29:00,48.8,47.2,29.58,WNW,300,0.0,4.0,94,0.61,,,1.76,Wunderground v.1.15,2013-04-19 02:29:00,
2013-04-18 21:30:00,48.8,47.2,29.57,WNW,300,0.0,4.0,94,0.73,,,1.78,Wunderground v.1.15,2013-04-19 02:30:00,
2013-04-18 21:33:00,48.6,47.0,29.57,WNW,300,0.0,1.0,94,0.56,,,1.80,Wunderground v.1.15,2013-04-19 02:33:00,
2013-04-18 21:34:00,48.6,47.0,29.57,WNW,299,0.0,1.0,94,0.36,,,1.80,Wunderground v.1.15,2013-04-19 02:34:00,
2013-04-18 21:35:00,48.6,47.0,29.57,NW,323,0.0,1.0,94,0.26,,,1.80,Wunderground v.1.15,2013-04-19 02:35:00,
2013-04-18 21:36:00,48.6,47.0,29.57,WNW,290,0.0,1.0,94,0.18,,,1.80,Wunderground v.1.15,2013-04-19 02:36:00,
2013-04-18 21:38:00,48.4,46.8,29.56,NW,315,0.0,5.0,94,0.17,,,1.81,Wunderground v.1.15,2013-04-19 02:38:00,
2013-04-18 21:39:00,48.3,46.7,29.56,NW,311,2.0,5.0,94,0.24,,,1.82,Wunderground v.1.15,2013-04-19 02:39:00,
2013-04-18 21:40:00,48.2,46.6,29.56,WNW,300,7.0,7.0,94,0.24,,,1.82,Wunderground v.1.15,2013-04-19 02:40:00,
2013-04-18 21:41:00,48.2,46.6,29.56,NW,309,2.0,7.0,94,0.24,,,1.82,Wunderground v.1.15,2013-04-19 02:41:00,
2013-04-18 21:44:00,48.0,46.4,29.55,WNW,298,1.0,7.0,94,0.27,,,1.84,Wunderground v.1.15,2013-04-19 02:44:00,
2013-04-18 21:45:00,47.9,46.3,29.55,WNW,298,2.0,7.0,94,0.27,,,1.84,Wunderground v.1.15,2013-04-19 02:45:00,
2013-04-18 21:46:00,47.9,46.3,29.56,WNW,288,1.0,7.0,94,0.25,,,1.84,Wunderground v.1.15,2013-04-19 02:46:00,
2013-04-18 21:49:00,47.8,46.2,29.59,WNW,300,3.0,7.0,94,0.25,,,1.86,Wunderground v.1.15,2013-04-19 02:49:00,
2013-04-18 21:50:00,47.7,46.1,29.59,WNW,299,2.0,7.0,94,0.25,,,1.86,Wunderground v.1.15,2013-04-19 02:50:00,
2013-04-18 21:51:00,47.7,46.1,29.59,WNW,300,0.0,7.0,94,0.25,,,1.86,Wunderground v.1.15,2013-04-19 02:51:00,
2013-04-18 21:52:00,47.8,46.2,29.59,WNW,300,0.0,7.0,94,0.19,,,1.86,Wunderground v.1.15,2013-04-19 02:52:00,
2013-04-18 21:55:00,47.8,46.2,29.59,NW,309,3.0,5.0,94,0.14,,,1.87,Wunderground v.1.15,2013-04-19 02:55:00,
2013-04-18 21:56:00,47.8,46.2,29.58,WNW,300,3.0,5.0,94,0.14,,,1.87,Wunderground v.1.15,2013-04-19 02:56:00,
2013-04-18 21:57:00,47.7,46.1,29.58,NNE,25,8.0,13.0,94,0.15,,,1.88,Wunderground v.1.15,2013-04-19 02:57:00,
2013-04-18 22:00:00,47.7,46.1,29.59,NW,318,2.0,13.0,94,0.15,,,1.88,Wunderground v.1.15,2013-04-19 03:00:00,
2013-04-18 22:01:00,47.7,46.1,29.59,NW,317,3.0,13.0,94,0.15,,,1.88,Wunderground v.1.15,2013-04-19 03:01:00,
2013-04-18 22:04:00,47.7,46.1,29.60,NW,309,0.0,4.0,94,0.24,,,1.90,Wunderground v.1.15,2013-04-19 03:04:00,
2013-04-18 22:06:00,47.7,46.1,29.61,NW,305,4.0,7.0,94,0.23,,,1.90,Wunderground v.1.15,2013-04-19 03:06:00,
2013-04-18 22:07:00,47.6,46.0,29.62,WNW,298,2.0,7.0,94,0.18,,,1.90,Wunderground v.1.15,2013-04-19 03:07:00,
2013-04-18 22:10:00,47.6,46.0,29.62,NW,306,2.0,7.0,94,0.18,,,1.92,Wunderground v.1.15,2013-04-19 03:10:00,
2013-04-18 22:11:00,47.5,45.9,29.62,NNW,332,2.0,7.0,94,0.21,,,1.92,Wunderground v.1.15,2013-04-19 03:11:00,
2013-04-18 22:12:00,47.5,45.9,29.62,NW,323,2.0,7.0,94,0.21,,,1.92,Wunderground v.1.15,2013-04-19 03:12:00,
2013-04-18 22:15:00,47.4,45.8,29.61,NW,306,2.0,6.0,94,0.17,,,1.93,Wunderground v.1.15,2013-04-19 03:15:00,
2013-04-18 22:17:00,47.4,45.8,29.62,WNW,299,4.0,6.0,94,0.31,,,1.94,Wunderground v.1.15,2013-04-19 03:17:00,
2013-04-18 22:20:00,47.2,45.6,29.61,NNW,327,1.0,6.0,94,0.35,,,1.96,Wunderground v.1.15,2013-04-19 03:20:00,
2013-04-18 22:22:00,47.2,45.6,29.60,NW,313,0.0,6.0,94,0.27,,,1.97,Wunderground v.1.15,2013-04-19 03:22:00,
2013-04-18 22:25:00,47.1,45.5,29.59,NW,314,3.0,5.0,94,0.26,,,1.99,Wunderground v.1.15,2013-04-19 03:25:00,
2013-04-18 22:27:00,47.0,45.4,29.59,NW,313,2.0,5.0,94,0.33,,,2.00,Wunderground v.1.15,2013-04-19 03:27:00,
2013-04-18 22:28:00,47.0,45.4,29.59,NW,313,1.0,5.0,94,0.33,,,2.00,Wunderground v.1.15,2013-04-19 03:28:00,
2013-04-18 22:31:00,47.0,45.4,29.60,WNW,288,0.0,5.0,94,0.19,,,2.01,Wunderground v.1.15,2013-04-19 03:31:00,
2013-04-18 22:33:00,47.0,45.4,29.60,WNW,290,3.0,3.0,94,0.22,,,2.02,Wunderground v.1.15,2013-04-19 03:33:00,
2013-04-18 22:34:00,46.9,45.3,29.60,WNW,302,1.0,4.0,94,0.22,,,2.02,Wunderground v.1.15,2013-04-19 03:34:00,
2013-04-18 22:36:00,46.9,45.3,29.60,NW,323,2.0,6.0,94,0.15,,,2.02,Wunderground v.1.15,2013-04-19 03:36:00,
2013-04-18 22:38:00,46.9,45.3,29.61,NW,314,0.0,6.0,94,0.09,,,2.02,Wunderground v.1.15,2013-04-19 03:38:00,
2013-04-18 22:39:00,46.9,45.3,29.61,NW,314,0.0,6.0,94,0.09,,,2.02,Wunderground v.1.15,2013-04-19 03:39:00,
2013-04-18 22:42:00,46.9,45.3,29.63,WNW,302,0.0,6.0,94,0.06,,,2.02,Wunderground v.1.15,2013-04-19 03:42:00,
2013-04-18 22:44:00,46.9,45.3,29.64,WNW,303,1.0,3.0,94,0.05,,,2.02,Wunderground v.1.15,2013-04-19 03:44:00,
2013-04-18 22:47:00,46.9,45.3,29.64,WNW,302,0.0,3.0,94,0.04,,,2.02,Wunderground v.1.15,2013-04-19 03:47:00,
2013-04-18 22:49:00,46.9,45.3,29.63,WNW,302,0.0,3.0,94,0.00,,,2.02,Wunderground v.1.15,2013-04-19 03:49:00,
2013-04-18 22:50:00,46.8,45.2,29.64,WNW,302,0.0,3.0,94,0.00,,,2.02,Wunderground v.1.15,2013-04-19 03:50:00,
2013-04-18 22:53:00,46.7,45.1,29.63,NW,319,1.0,6.0,94,0.00,,,2.03,Wunderground v.1.15,2013-04-19 03:53:00,
2013-04-18 22:54:00,46.6,45.0,29.62,NNW,335,7.0,7.0,94,0.00,,,2.03,Wunderground v.1.15,2013-04-19 03:54:00,
2013-04-18 22:55:00,46.6,45.0,29.62,NW,311,4.0,7.0,94,0.00,,,2.03,Wunderground v.1.15,2013-04-19 03:55:00,
2013-04-18 23:00:00,46.4,44.8,29.63,North,350,0.0,7.0,94,0.00,,,2.03,Wunderground v.1.15,2013-04-19 04:00:00,
2013-04-18 23:01:00,46.4,44.8,29.63,NW,311,0.0,7.0,94,0.00,,,2.03,Wunderground v.1.15,2013-04-19 04:01:00,
2013-04-18 23:02:00,46.4,44.8,29.63,NW,318,2.0,7.0,94,0.00,,,2.03,Wunderground v.1.15,2013-04-19 04:02:00,
2013-04-18 23:06:00,46.3,44.7,29.62,North,360,0.0,2.0,94,0.00,,,2.03,Wunderground v.1.15,2013-04-19 04:06:00,
2013-04-18 23:07:00,46.3,44.7,29.62,WNW,300,3.0,3.0,94,0.00,,,2.03,Wunderground v.1.15,2013-04-19 04:07:00,
2013-04-18 23:08:00,46.2,44.6,29.62,NNE,21,4.0,5.0,94,0.00,,,2.04,Wunderground v.1.15,2013-04-19 04:08:00,
2013-04-18 23:11:00,46.2,44.6,29.61,NNW,347,0.0,5.0,94,0.00,,,2.04,Wunderground v.1.15,2013-04-19 04:11:00,
2013-04-18 23:12:00,46.2,44.6,29.61,NNW,344,0.0,5.0,94,0.00,,,2.04,Wunderground v.1.15,2013-04-19 04:12:00,
2013-04-18 23:13:00,46.2,44.6,29.61,NNW,334,0.0,1.0,94,0.00,,,2.04,Wunderground v.1.15,2013-04-19 04:13:00,
2013-04-18 23:17:00,46.1,44.5,29.60,ENE,60,0.0,4.0,94,0.00,,,2.04,Wunderground v.1.15,2013-04-19 04:17:00,
2013-04-18 23:18:00,46.1,44.5,29.60,ENE,58,0.0,4.0,94,0.00,,,2.04,Wunderground v.1.15,2013-04-19 04:18:00,
2013-04-18 23:19:00,46.1,44.5,29.60,NW,314,0.0,4.0,94,0.00,,,2.04,Wunderground v.1.15,2013-04-19 04:19:00,
2013-04-18 23:23:00,46.1,44.5,29.61,NW,311,0.0,1.0,94,0.00,,,2.04,Wunderground v.1.15,2013-04-19 04:23:00,
2013-04-18 23:24:00,46.1,44.5,29.61,NW,311,0.0,1.0,94,0.00,,,2.04,Wunderground v.1.15,2013-04-19 04:24:00,
2013-04-18 23:28:00,46.1,44.5,29.62,West,273,0.0,3.0,94,0.00,,,2.04,Wunderground v.1.15,2013-04-19 04:28:00,
2013-04-18 23:29:00,46.0,44.4,29.63,WNW,288,0.0,3.0,94,0.00,,,2.04,Wunderground v.1.15,2013-04-19 04:29:00,
2013-04-18 23:31:00,46.0,44.4,29.62,WNW,288,0.0,3.0,94,0.00,,,2.04,Wunderground v.1.15,2013-04-19 04:31:00,
2013-04-18 23:33:00,46.0,44.4,29.63,WNW,288,0.0,0.0,94,0.00,,,2.04,Wunderground v.1.15,2013-04-19 04:33:00,
2013-04-18 23:34:00,46.0,44.4,29.64,NW,307,1.0,6.0,94,0.00,,,2.04,Wunderground v.1.15,2013-04-19 04:34:00,
2013-04-18 23:35:00,46.0,44.4,29.64,NW,308,0.0,6.0,94,0.00,,,2.04,Wunderground v.1.15,2013-04-19 04:35:00,
2013-04-18 23:36:00,46.0,44.4,29.64,NW,308,0.0,6.0,94,0.00,,,2.04,Wunderground v.1.15,2013-04-19 04:36:00,
2013-04-18 23:38:00,46.0,44.4,29.64,NW,307,0.0,6.0,94,0.00,,,2.04,Wunderground v.1.15,2013-04-19 04:38:00,
2013-04-18 23:40:00,45.9,44.3,29.65,NW,318,3.0,6.0,94,0.00,,,2.04,Wunderground v.1.15,2013-04-19 04:40:00,
2013-04-18 23:41:00,45.9,44.3,29.65,NW,320,1.0,6.0,94,0.00,,,2.04,Wunderground v.1.15,2013-04-19 04:41:00,
2013-04-18 23:42:00,45.9,44.3,29.65,NW,306,4.0,6.0,94,0.00,,,2.04,Wunderground v.1.15,2013-04-19 04:42:00,
2013-04-18 23:43:00,45.8,44.2,29.64,NW,322,1.0,5.0,94,0.00,,,2.04,Wunderground v.1.15,2013-04-19 04:43:00,
2013-04-18 23:44:00,45.8,44.2,29.64,WNW,303,4.0,10.0,94,0.00,,,2.04,Wunderground v.1.15,2013-04-19 04:44:00,
2013-04-18 23:45:00,45.7,43.8,29.65,NW,304,2.0,10.0,93,0.00,,,2.04,Wunderground v.1.15,2013-04-19 04:45:00,
2013-04-18 23:46:00,45.7,43.8,29.65,NW,323,5.0,10.0,93,0.00,,,2.04,Wunderground v.1.15,2013-04-19 04:46:00,
2013-04-18 23:47:00,45.6,43.7,29.66,NW,314,2.0,10.0,93,0.00,,,2.04,Wunderground v.1.15,2013-04-19 04:47:00,
2013-04-18 23:48:00,45.6,43.7,29.66,NW,307,0.0,10.0,93,0.00,,,2.04,Wunderground v.1.15,2013-04-19 04:48:00,
2013-04-18 23:51:00,45.6,43.7,29.65,WNW,300,0.0,10.0,93,0.00,,,2.04,Wunderground v.1.15,2013-04-19 04:51:00,
2013-04-18 23:52:00,45.6,43.7,29.65,WNW,300,0.0,10.0,93,0.00,,,2.04,Wunderground v.1.15,2013-04-19 04:52:00,
2013-04-18 23:53:00,45.5,43.6,29.64,North,360,0.0,3.0,93,0.00,,,2.04,Wunderground v.1.15,2013-04-19 04:53:00,
2013-04-18 23:56:00,45.5,43.6,29.63,North,355,0.0,3.0,93,0.00,,,2.04,Wunderground v.1.15,2013-04-19 04:56:00,
2013-04-18 23:57:00,45.5,43.6,29.64,North,355,0.0,3.0,93,0.00,,,2.04,Wunderground v.1.15,2013-04-19 04:57:00,
2013-04-18 23:58:00,45.4,43.5,29.64,North,355,0.0,3.0,93,0.00,,,2.04,Wunderground v.1.15,2013-04-19 04:58:00,